                ,  0.865,  0.965,  1.065,  1.165,  1.265,  1.365,  1.465,  1.565,  1.665,  1.765,  1.865,  1.965,  2.065,  2.165,  2.265,  2.365,  2.465,  2.565,  2.665,  2.765,  2.865,  2.965,  3.065,  3.165,  3.265,  3.365,  3.465,  3.565,  3.665,  3.765,  3.865,  3.965,  4.065,  4.165,  4.265,  4.365,  4.465,  4.565,  4.665,  4.765,  4.865,  4.965,  5.065,  5.165,  5.265,  5.365,  5.465,  5.565,  5.665,  5.765,  5.865,  5.965
1999/01/01 00:00,  999.0,  999.0,  999.0,  999.0,  999.0,   -3.0,  999.0,  999.0,   -4.3,   -4.0,   -3.9,   -3.8,   -3.8,   -3.8,   -4.1,   -3.8,   -3.9,   -4.0,   -4.1,   -4.2,   -4.2,   -4.1,   -3.7,   -3.7,   -3.6,   -3.5,   -3.6,   -3.5,   -3.3,   -3.1,   -2.8,   -2.8,   -2.7,   -2.2,   -2.4,   -2.4,   -2.4,   -2.4,   -1.9,   -1.5,   -1.2,   -1.0,   -1.1,   -0.9,   -0.9,   -0.8,   -1.0,   -0.7,  999.0,   -0.3,  999.0,  999.0
1999/01/01 00:10,  999.0,  999.0,  999.0,  999.0,  999.0,   -3.6,   -3.5,   -3.5,   -3.6,   -3.5,   -3.5,   -3.6,   -3.6,   -3.6,   -3.5,   -3.6,   -3.7,   -3.8,   -3.9,   -3.9,   -3.9,   -3.8,   -3.6,   -3.6,   -3.5,   -3.4,   -3.3,   -3.2,   -3.1,   -2.9,   -2.8,   -2.5,   -2.4,   -2.4,   -2.3,   -2.1,  999.0,  999.0,   -1.8,   -1.3,   -1.0,   -1.1,   -1.0,   -0.9,   -1.0,   -1.0,  999.0,  999.0,  999.0,  999.0,   -0.8,  999.0
1999/01/01 00:20,  999.0,  999.0,  999.0,  999.0,  999.0,   -3.0,   -3.0,   -2.9,   -2.9,   -2.8,   -2.8,   -2.9,   -3.1,   -3.5,   -3.8,   -4.0,   -4.0,   -4.0,   -4.1,   -4.0,   -3.9,   -3.8,   -3.6,   -3.4,   -3.3,   -3.2,   -3.2,   -3.1,   -3.0,   -2.9,   -2.7,   -2.6,   -2.5,   -2.4,   -2.2,   -2.2,   -2.3,  999.0,   -1.8,   -1.3,   -1.0,   -1.0,   -1.0,   -1.0,   -0.8,  999.0,  999.0,  999.0,  999.0,  999.0,   -0.8,  999.0
1999/01/01 00:30,  999.0,  999.0,  999.0,  999.0,  999.0,   -3.0,   -3.0,   -3.0,   -3.1,   -3.1,   -3.3,   -3.4,   -3.5,   -3.7,   -3.8,   -3.8,   -3.8,   -3.6,   -3.6,   -3.5,   -3.4,   -3.3,   -3.2,   -3.1,   -3.0,   -3.1,   -3.0,   -2.8,   -2.7,   -2.6,   -2.5,   -2.4,   -2.4,   -2.3,   -2.3,   -2.3,   -2.2,   -2.3,   -1.7,   -1.3,   -1.0,   -1.0,   -1.1,   -1.0,   -1.0,   -0.9,   -1.0,   -0.9,   -0.7,  999.0,  999.0,  999.0
1999/01/01 00:40,  999.0,  999.0,  999.0,  999.0,  999.0,   -3.9,   -3.9,   -4.0,   -3.9,   -3.9,   -4.0,   -4.0,   -4.0,   -4.1,   -4.1,   -4.1,   -4.0,   -3.9,   -3.7,   -3.6,   -3.5,   -3.4,   -3.4,   -3.2,   -3.1,   -2.9,   -2.8,   -2.7,   -2.6,   -2.5,   -2.4,   -2.3,   -2.3,   -2.4,   -2.3,   -2.2,   -2.3,   -2.2,   -1.7,   -1.3,   -1.1,   -1.1,   -1.0,   -1.0,   -1.0,   -0.8,   -0.8,   -0.7,  999.0,  999.0,  999.0,  999.0
1999/01/01 00:50,  999.0,  999.0,  999.0,  999.0,   -3.5,   -3.5,   -3.4,   -3.4,   -3.4,   -3.3,   -3.3,   -3.3,   -3.2,   -3.2,   -3.3,   -3.3,   -3.3,   -3.3,   -3.3,   -3.2,   -3.2,   -3.3,   -3.3,   -3.3,   -3.2,   -3.1,   -3.0,   -3.1,   -2.9,   -2.8,   -2.6,   -2.7,   -2.6,   -2.5,   -2.5,   -2.5,   -2.5,   -2.3,   -1.7,   -1.3,   -1.1,   -1.0,   -0.9,   -1.0,   -0.9,   -0.9,   -0.8,  999.0,   -0.9,  999.0,  999.0,  999.0
1999/01/01 01:00,  999.0,  999.0,  999.0,  999.0,   -3.2,   -3.2,   -3.2,   -3.2,   -3.2,   -3.1,   -3.1,   -3.1,   -3.0,   -3.1,   -3.1,   -3.1,   -3.0,   -3.0,   -2.9,   -2.8,   -2.7,   -2.6,   -2.6,   -2.8,   -2.8,   -2.8,   -2.7,   -2.7,   -2.6,   -2.5,   -2.4,   -2.3,   -2.3,   -2.3,   -2.3,   -2.4,   -2.3,   -2.1,   -1.6,   -1.4,   -1.3,   -1.1,   -1.0,   -1.1,  999.0,  999.0,  999.0,  999.0,  999.0,  999.0,  999.0,  999.0
1999/01/01 01:10,  999.0,  999.0,  999.0,  999.0,   -2.8,   -2.8,  999.0,   -2.8,   -2.7,   -2.7,   -2.5,   -2.4,   -2.5,   -2.5,   -2.6,   -2.7,   -2.8,   -2.9,   -2.8,   -2.7,   -2.5,   -2.5,   -2.5,   -2.4,   -2.3,   -2.3,   -2.2,   -2.1,   -2.0,   -1.9,   -1.9,   -1.8,   -1.8,   -1.8,   -1.7,   -1.7,   -1.8,   -1.7,   -1.4,   -1.1,   -1.0,   -1.0,   -0.9,  999.0,  999.0,  999.0,  999.0,  999.0,  999.0,  999.0,  999.0,  999.0
1999/01/01 01:20,  999.0,  999.0,  999.0,  999.0,   -2.8,   -2.8,   -2.8,   -2.7,   -2.6,   -2.6,   -2.4,   -2.3,   -2.3,   -2.2,   -2.2,   -2.1,   -2.1,   -2.1,   -2.1,   -2.1,   -2.3,   -2.1,   -2.2,   -2.1,   -2.2,   -2.3,   -2.2,   -2.0,   -2.0,   -1.9,   -1.8,   -1.8,   -1.8,   -1.7,   -1.7,   -1.7,   -1.6,   -1.5,   -1.1,   -0.9,   -0.9,   -0.8,  999.0,  999.0,  999.0,  999.0,  999.0,  999.0,  999.0,  999.0,  999.0,  999.0
1999/01/01 01:30,  999.0,  999.0,  999.0,  999.0,  999.0,   -2.5,   -2.5,   -2.5,   -2.5,   -2.6,   -2.5,   -2.2,   -2.2,   -2.1,   -2.0,   -2.0,   -1.9,   -1.9,   -1.8,   -1.6,   -1.4,   -1.9,  999.0,  999.0,  999.0,  999.0,  999.0,   -2.1,   -1.9,   -1.7,   -1.8,   -1.7,   -1.7,   -1.7,   -1.8,   -1.5,   -1.5,   -1.5,   -1.0,  999.0,  999.0,  999.0,  999.0,  999.0,  999.0,  999.0,  999.0,  999.0,  999.0,  999.0,  999.0,  999.0
1999/01/01 01:40,  999.0,  999.0,  999.0,  999.0,  999.0,   -2.8,   -2.7,   -2.6,   -2.5,   -2.4,   -2.0,   -1.8,   -1.9,   -2.0,   -1.9,   -1.8,   -1.7,   -1.7,   -1.6,   -1.6,   -1.5,   -1.6,   -2.0,   -2.1,   -1.9,   -2.1,   -2.0,   -1.8,   -1.7,   -1.7,   -1.6,   -1.5,   -1.4,   -1.5,   -1.6,   -1.4,   -1.5,   -1.2,   -1.0,  999.0,  999.0,  999.0,  999.0,  999.0,  999.0,  999.0,  999.0,  999.0,  999.0,  999.0,  999.0,  999.0
1999/01/01 01:50,  999.0,  999.0,  999.0,  999.0,  999.0,   -2.5,   -2.4,   -2.4,   -2.5,  999.0,  999.0,   -2.3,   -2.0,   -2.0,   -2.0,   -1.8,   -1.8,   -1.8,   -1.8,   -1.7,   -1.3,   -1.1,   -1.7,   -1.6,  999.0,   -2.1,   -2.1,   -2.3,   -2.2,   -2.1,   -1.9,   -1.9,   -1.8,   -1.6,   -1.6,   -1.5,   -1.4,   -1.4,   -1.1,  999.0,  999.0,  999.0,  999.0,  999.0,  999.0,  999.0,  999.0,  999.0,  999.0,  999.0,  999.0,  999.0
1999/01/01 02:00,  999.0,  999.0,  999.0,  999.0,  999.0,  999.0,   -0.1,   -0.1,   -0.0,   -0.0,    0.0,   -0.1,    0.0,    0.1,   -0.6,   -0.2,   -0.3,   -0.7,   -0.8,   -0.2,    0.1,   -0.0,  999.0,  999.0,  999.0,  999.0,  999.0,  999.0,  999.0,   -1.8,   -1.6,   -2.2,   -1.8,   -1.9,   -1.8,   -1.8,   -1.6,   -1.5,   -1.2,   -0.9,  999.0,  999.0,  999.0,  999.0,  999.0,  999.0,  999.0,  999.0,  999.0,  999.0,  999.0,  999.0
1999/01/01 02:10,  999.0,  999.0,  999.0,  999.0,  999.0,  999.0,   -0.0,   -0.0,    0.1,    0.1,    0.0,    0.1,    0.1,   -0.0,   -0.5,  999.0,  999.0,   -0.3,    0.0,   -0.1,   -0.3,  999.0,  999.0,  999.0,  999.0,  999.0,  999.0,  999.0,  999.0,  999.0,  999.0,  999.0,  999.0,  999.0,   -3.6,   -2.3,   -2.4,   -1.5,   -1.2,   -1.0,   -1.0,   -1.0,   -1.0,   -1.2,   -1.2,   -1.1,   -1.2,   -0.8,   -0.7,  999.0,  999.0,  999.0
1999/01/01 02:20,  999.0,  999.0,  999.0,  999.0,  999.0,  999.0,    0.0,   -0.1,   -0.1,   -0.3,  999.0,  999.0,  999.0,  999.0,  999.0,   -1.9,   -1.4,   -1.5,   -1.0,   -0.8,  999.0,  999.0,  999.0,  999.0,  999.0,  999.0,  999.0,   -3.2,   -3.1,   -3.1,   -3.1,   -3.0,   -2.9,   -2.9,   -3.1,   -3.1,   -3.0,   -1.9,   -1.4,   -1.2,   -1.2,   -1.2,   -1.2,   -1.1,   -1.0,   -1.0,   -0.9,   -0.9,   -0.7,   -0.6,   -0.4,  999.0
1999/01/01 02:30,  999.0,  999.0,  999.0,  999.0,  999.0,    0.0,    0.0,   -0.0,   -0.1,   -0.0,   -0.1,  999.0,  999.0,  999.0,  999.0,  999.0,   -1.5,   -1.8,   -1.5,   -1.4,   -0.6,   -0.8,  999.0,  999.0,  999.0,    0.1,  999.0,  999.0,  999.0,  999.0,  999.0,  999.0,  999.0,  999.0,  999.0,  999.0,  999.0,  999.0,  999.0,  999.0,  999.0,   -0.9,   -0.9,   -0.8,   -0.9,  999.0,  999.0,  999.0,  999.0,  999.0,  999.0,  999.0
1999/01/01 02:40,  999.0,  999.0,  999.0,  999.0,  999.0,    0.2,    0.0,   -0.0,   -0.4,   -0.4,  999.0,  999.0,  999.0,   -1.0,   -1.6,   -1.4,   -1.0,   -1.1,   -1.3,   -1.3,  999.0,  999.0,  999.0,   -0.2,  999.0,  999.0,   -0.2,  999.0,  999.0,  999.0,  999.0,  999.0,  999.0,  999.0,  999.0,  999.0,  999.0,  999.0,  999.0,  999.0,  999.0,  999.0,  999.0,  999.0,  999.0,  999.0,  999.0,  999.0,  999.0,    0.0,  999.0,  999.0
1999/01/01 02:50,  999.0,  999.0,  999.0,   -0.0,  999.0,    0.1,    0.0,    0.0,    0.1,    0.2,   -0.3,   -0.8,    0.2,   -0.6,    0.0,   -0.6,   -0.9,   -0.7,   -1.5,   -1.5,   -1.4,   -1.4,   -0.7,   -0.5,  999.0,   -0.1,   -0.2,   -0.3,   -0.1,  999.0,  999.0,  999.0,  999.0,  999.0,  999.0,  999.0,  999.0,  999.0,  999.0,  999.0,  999.0,  999.0,  999.0,  999.0,  999.0,  999.0,  999.0,  999.0,  999.0,  999.0,  999.0,  999.0
1999/01/01 03:00,  999.0,  999.0,  999.0,    0.0,  999.0,    0.0,   -0.1,   -0.1,   -0.1,    0.0,    0.2,    0.4,   -0.3,   -0.2,   -0.3,   -0.4,   -0.4,   -0.7,   -0.7,   -0.6,   -0.9,   -0.8,   -0.4,   -0.5,   -0.3,   -0.2,    0.0,   -0.1,   -0.3,  999.0,  999.0,  999.0,  999.0,  999.0,  999.0,  999.0,  999.0,  999.0,  999.0,  999.0,  999.0,  999.0,  999.0,  999.0,  999.0,  999.0,  999.0,  999.0,  999.0,  999.0,  999.0,  999.0
1999/01/01 03:10,  999.0,  999.0,  999.0,    0.0,  999.0,    0.1,    0.1,    0.1,    0.2,    0.2,  999.0,    0.3,    0.3,  999.0,   -0.0,    0.2,  999.0,    0.0,   -0.8,   -1.3,   -1.2,   -1.0,   -0.8,   -0.6,   -0.6,   -0.3,   -0.2,   -0.2,  999.0,   -0.3,   -0.7,  999.0,  999.0,  999.0,  999.0,  999.0,  999.0,  999.0,  999.0,  999.0,  999.0,  999.0,  999.0,  999.0,  999.0,  999.0,  999.0,  999.0,  999.0,  999.0,  999.0,  999.0
1999/01/01 03:20,  999.0,  999.0,  999.0,    0.0,  999.0,    0.1,    0.2,    0.1,    0.2,    0.1,    0.1,    0.1,   -0.5,   -0.3,  999.0,   -0.6,   -0.9,   -0.4,  999.0,   -0.4,   -0.6,  999.0,  999.0,   -0.6,   -0.5,   -0.4,   -0.2,  999.0,   -0.3,   -0.3,  999.0,  999.0,  999.0,  999.0,  999.0,  999.0,  999.0,  999.0,  999.0,  999.0,  999.0,  999.0,  999.0,  999.0,  999.0,  999.0,  999.0,  999.0,  999.0,  999.0,  999.0,  999.0
1999/01/01 03:30,  999.0,  999.0,  999.0,   -0.0,  999.0,    0.1,    0.1,    0.0,    0.0,    0.1,    0.2,    0.2,   -0.1,   -0.0,    0.1,   -0.3,   -0.7,   -0.7,   -0.5,   -1.2,  999.0,  999.0,  999.0,  999.0,   -0.9,   -0.8,   -0.8,   -1.3,   -1.0,   -0.4,   -0.7,   -0.6,  999.0,   -0.6,  999.0,  999.0,  999.0,  999.0,  999.0,  999.0,  999.0,  999.0,  999.0,  999.0,  999.0,  999.0,  999.0,  999.0,  999.0,  999.0,  999.0,  999.0
1999/01/01 03:40,  999.0,  999.0,  999.0,  999.0,  999.0,  999.0,   -0.0,   -0.2,    0.0,   -0.1,    0.2,    0.4,   -0.1,    0.1,   -0.3,    0.3,    0.4,    0.1,  999.0,   -0.0,   -0.2,   -0.3,    0.1,  999.0,  999.0,   -0.1,   -0.4,  999.0,  999.0,  999.0,   -0.6,  999.0,  999.0,   -0.1,  999.0,  999.0,  999.0,  999.0,  999.0,  999.0,  999.0,  999.0,  999.0,  999.0,  999.0,  999.0,  999.0,  999.0,  999.0,   -0.2,  999.0,  999.0
1999/01/01 03:50,  999.0,  999.0,  999.0,   -0.0,  999.0,  999.0,   -0.0,    0.2,   -0.1,   -0.1,   -0.1,   -0.0,    0.3,    0.4,  999.0,   -0.2,   -0.1,  999.0,    0.3,   -0.2,  999.0,    0.1,  999.0,   -0.3,  999.0,   -0.1,  999.0,  999.0,  999.0,  999.0,  999.0,  999.0,  999.0,  999.0,  999.0,  999.0,  999.0,  999.0,  999.0,  999.0,  999.0,  999.0,  999.0,  999.0,  999.0,  999.0,  999.0,  999.0,  999.0,    0.0,  999.0,  999.0
1999/01/01 04:00,  999.0,  999.0,  999.0,   -0.0,  999.0,  999.0,  999.0,    0.3,   -0.0,   -0.2,   -0.1,   -0.0,    0.3,   -0.2,   -0.4,    0.2,   -0.0,   -0.3,  999.0,   -0.1,  999.0,    0.1,  999.0,  999.0,  999.0,   -0.0,    0.0,    0.1,  999.0,  999.0,  999.0,  999.0,  999.0,  999.0,  999.0,  999.0,  999.0,  999.0,  999.0,  999.0,  999.0,  999.0,  999.0,  999.0,  999.0,  999.0,  999.0,  999.0,  999.0,  999.0,  999.0,  999.0
1999/01/01 04:10,  999.0,  999.0,  999.0,    0.0,  999.0,  999.0,  999.0,    0.1,    0.1,    0.2,    0.1,    0.0,    0.0,   -0.0,    0.2,    0.3,   -0.6,   -0.0,    0.1,   -0.3,  999.0,   -0.2,  999.0,  999.0,   -0.3,   -0.0,  999.0,  999.0,  999.0,  999.0,  999.0,  999.0,  999.0,  999.0,  999.0,  999.0,  999.0,  999.0,  999.0,  999.0,  999.0,  999.0,  999.0,  999.0,  999.0,  999.0,  999.0,  999.0,    0.1,  999.0,  999.0,  999.0
1999/01/01 04:20,  999.0,  999.0,  999.0,    0.0,  999.0,  999.0,  999.0,    0.1,   -0.1,   -0.0,   -0.0,    0.0,   -0.2,   -0.3,   -0.6,   -0.5,   -1.1,   -0.6,   -1.1,   -1.0,   -1.4,   -1.4,   -1.2,   -1.1,   -1.0,   -0.8,   -0.7,   -0.8,   -0.7,   -0.6,   -0.7,   -0.6,   -0.5,  999.0,   -0.1,  999.0,  999.0,  999.0,  999.0,  999.0,  999.0,  999.0,  999.0,  999.0,  999.0,  999.0,  999.0,  999.0,  999.0,  999.0,  999.0,  999.0
1999/01/01 04:30,  999.0,  999.0,  999.0,  999.0,  999.0,   -0.0,   -0.1,   -0.3,   -0.0,   -0.1,   -0.1,   -0.1,    0.0,   -0.7,  999.0,   -2.0,  999.0,   -3.0,   -2.8,   -2.6,   -2.5,   -2.4,   -2.4,   -2.3,   -2.2,   -2.0,   -1.7,   -1.6,   -1.4,   -1.3,   -1.1,   -1.0,   -1.0,   -0.9,   -0.7,   -0.9,  999.0,  999.0,  999.0,  999.0,  999.0,  999.0,  999.0,  999.0,  999.0,  999.0,  999.0,  999.0,  999.0,  999.0,  999.0,  999.0
1999/01/01 04:40,  999.0,  999.0,  999.0,  999.0,  999.0,  999.0,    0.2,    0.2,    0.1,    0.3,    0.4,    0.3,   -0.1,   -0.2,  999.0,  999.0,  999.0,  999.0,  999.0,   -2.8,   -2.7,   -2.4,   -2.3,   -2.2,   -2.2,   -2.2,   -2.1,   -2.1,   -2.1,   -2.0,   -1.8,   -1.6,   -1.5,   -1.2,   -1.1,   -1.0,   -0.9,   -0.5,  999.0,  999.0,  999.0,  999.0,  999.0,  999.0,  999.0,  999.0,  999.0,  999.0,  999.0,  999.0,  999.0,  999.0
1999/01/01 04:50,  999.0,  999.0,  999.0,  999.0,  999.0,    0.1,    0.0,    0.0,    0.1,    0.1,    0.4,    0.1,    0.0,   -0.0,    0.5,  999.0,  999.0,   -1.3,   -2.2,   -2.2,   -2.1,   -2.0,   -1.9,   -1.8,   -1.6,   -1.5,   -1.3,   -1.3,   -1.1,   -1.1,  999.0,  999.0,  999.0,  999.0,  999.0,  999.0,   -0.3,  999.0,  999.0,  999.0,  999.0,  999.0,  999.0,  999.0,  999.0,  999.0,  999.0,  999.0,  999.0,  999.0,  999.0,  999.0
1999/01/01 05:00,  999.0,  999.0,  999.0,  999.0,  999.0,  999.0,  999.0,   -0.2,    0.3,    0.2,  999.0,   -0.1,    0.3,    0.7,   -0.3,  999.0,  999.0,  999.0,  999.0,  999.0,  999.0,  999.0,  999.0,  999.0,  999.0,   -1.2,   -0.8,  999.0,  999.0,  999.0,  999.0,  999.0,  999.0,  999.0,  999.0,  999.0,  999.0,  999.0,  999.0,  999.0,  999.0,  999.0,  999.0,  999.0,  999.0,  999.0,  999.0,  999.0,  999.0,  999.0,  999.0,  999.0
1999/01/01 05:10,  999.0,  999.0,  999.0,    0.0,  999.0,   -0.2,   -0.2,   -0.1,   -0.3,   -0.1,    0.1,   -0.2,  999.0,   -0.2,    0.5,    0.2,  999.0,  999.0,  999.0,  999.0,  999.0,  999.0,  999.0,  999.0,  999.0,  999.0,  999.0,  999.0,  999.0,  999.0,  999.0,  999.0,  999.0,  999.0,  999.0,  999.0,  999.0,  999.0,  999.0,  999.0,  999.0,  999.0,  999.0,   -0.4,  999.0,  999.0,  999.0,  999.0,  999.0,  999.0,  999.0,  999.0
1999/01/01 05:20,  999.0,  999.0,  999.0,  999.0,  999.0,  999.0,   -0.1,    0.1,   -0.2,    0.0,   -0.0,   -0.3,   -0.7,  999.0,  999.0,  999.0,   -0.5,  999.0,  999.0,  999.0,   -0.7,  999.0,   -0.2,  999.0,  999.0,   -0.2,   -0.1,  999.0,  999.0,  999.0,  999.0,  999.0,  999.0,  999.0,  999.0,  999.0,  999.0,  999.0,  999.0,  999.0,  999.0,  999.0,  999.0,  999.0,  999.0,  999.0,  999.0,  999.0,  999.0,  999.0,  999.0,  999.0
1999/01/01 05:30,  999.0,  999.0,  999.0,  999.0,  999.0,  999.0,  999.0,  999.0,  999.0,  999.0,  999.0,  999.0,  999.0,   -1.4,   -1.4,   -1.5,   -1.5,   -1.5,   -1.5,   -1.5,   -1.5,   -1.0,   -0.8,   -1.3,   -1.6,   -0.4,   -0.2,  999.0,  999.0,  999.0,  999.0,   -0.2,  999.0,  999.0,  999.0,  999.0,  999.0,  999.0,  999.0,  999.0,  999.0,  999.0,  999.0,  999.0,  999.0,  999.0,  999.0,   -0.1,  999.0,    0.1,  999.0,  999.0
1999/01/01 05:40,  999.0,  999.0,  999.0,    0.0,  999.0,  999.0,    0.4,    0.4,    0.2,    0.1,    0.5,   -0.4,  999.0,   -0.2,   -0.1,   -0.2,   -0.6,  999.0,  999.0,  999.0,  999.0,  999.0,  999.0,  999.0,   -1.5,   -1.1,   -1.1,   -1.4,   -1.3,   -1.1,   -1.0,   -1.0,  999.0,   -0.6,   -0.5,   -1.0,   -0.9,   -0.6,   -0.4,  999.0,  999.0,  999.0,   -0.2,  999.0,  999.0,  999.0,   -0.2,  999.0,   -0.1,  999.0,  999.0,  999.0
1999/01/01 05:50,  999.0,  999.0,  999.0,    0.0,  999.0,  999.0,    0.1,    0.1,   -0.3,    0.0,    0.0,    0.2,  999.0,  999.0,  999.0,  999.0,  999.0,  999.0,  999.0,  999.0,  999.0,  999.0,  999.0,  999.0,    0.1,   -0.0,    0.1,    0.0,  999.0,  999.0,   -1.1,  999.0,   -1.0,  999.0,  999.0,  999.0,  999.0,  999.0,   -0.6,   -0.5,   -0.8,  999.0,  999.0,  999.0,  999.0,  999.0,  999.0,  999.0,    0.0,   -0.0,  999.0,  999.0
1999/01/01 06:00,  999.0,  999.0,  999.0,    0.0,  999.0,  999.0,    0.4,    0.2,    0.1,    0.5,    0.4,    0.2,  999.0,  999.0,  999.0,  999.0,  999.0,  999.0,  999.0,  999.0,  999.0,   -0.1,  999.0,  999.0,   -0.1,   -0.1,  999.0,    0.0,  999.0,  999.0,  999.0,  999.0,  999.0,  999.0,  999.0,  999.0,  999.0,  999.0,   -0.1,  999.0,  999.0,  999.0,  999.0,  999.0,  999.0,  999.0,  999.0,   -0.0,   -0.0,   -0.0,  999.0,  999.0
1999/01/01 06:10,  999.0,  999.0,  999.0,    0.0,  999.0,    0.5,    0.0,   -0.1,   -0.0,    0.0,    0.1,    0.2,  999.0,  999.0,  999.0,  999.0,  999.0,  999.0,  999.0,  999.0,  999.0,  999.0,  999.0,  999.0,    0.0,    0.0,    0.1,    0.1,  999.0,  999.0,  999.0,    0.0,  999.0,  999.0,  999.0,  999.0,  999.0,  999.0,    0.0,   -0.1,  999.0,  999.0,  999.0,    0.1,  999.0,  999.0,   -0.0,    0.0,   -0.0,   -0.0,  999.0,  999.0
1999/01/01 06:20,  999.0,  999.0,  999.0,  999.0,  999.0,  999.0,    0.1,    0.1,   -0.1,    0.1,    0.1,   -0.0,   -0.4,   -0.3,  999.0,  999.0,  999.0,  999.0,  999.0,  999.0,  999.0,  999.0,  999.0,  999.0,   -0.0,   -0.1,   -0.0,    0.0,  999.0,  999.0,  999.0,  999.0,  999.0,  999.0,  999.0,  999.0,    0.0,  999.0,   -0.0,   -0.1,  999.0,  999.0,  999.0,  999.0,  999.0,   -0.0,    0.0,   -0.1,   -0.1,    0.0,  999.0,  999.0
1999/01/01 06:30,  999.0,  999.0,  999.0,  999.0,  999.0,  999.0,   -0.1,   -0.1,   -0.1,   -0.3,   -0.1,    0.1,   -0.0,  999.0,  999.0,  999.0,  999.0,  999.0,  999.0,  999.0,  999.0,  999.0,  999.0,  999.0,   -0.0,   -0.0,   -0.0,    0.0,  999.0,  999.0,  999.0,  999.0,  999.0,  999.0,  999.0,  999.0,  999.0,   -0.0,    0.1,  999.0,  999.0,  999.0,  999.0,  999.0,  999.0,  999.0,  999.0,  999.0,  999.0,   -0.1,  999.0,  999.0
1999/01/01 06:40,  999.0,  999.0,  999.0,  999.0,  999.0,    0.1,   -0.2,   -0.2,   -0.3,   -0.2,   -0.1,   -0.0,    0.0,   -0.7,  999.0,  999.0,  999.0,  999.0,  999.0,  999.0,  999.0,  999.0,  999.0,    0.1,   -0.1,   -0.0,    0.1,   -0.1,  999.0,  999.0,  999.0,  999.0,  999.0,  999.0,  999.0,  999.0,  999.0,   -0.0,    0.0,    0.0,  999.0,  999.0,  999.0,  999.0,  999.0,  999.0,  999.0,  999.0,    0.0,   -0.0,  999.0,  999.0
1999/01/01 06:50,  999.0,  999.0,  999.0,   -0.0,  999.0,   -0.4,   -0.4,   -0.3,   -0.3,   -0.2,   -0.1,   -0.1,   -0.2,   -0.4,  999.0,  999.0,  999.0,  999.0,  999.0,  999.0,  999.0,  999.0,  999.0,  999.0,    0.1,   -0.0,    0.0,   -0.0,  999.0,  999.0,  999.0,  999.0,  999.0,  999.0,  999.0,  999.0,  999.0,    0.0,   -0.0,   -0.0,  999.0,  999.0,   -0.2,  999.0,  999.0,  999.0,    0.1,    0.1,    0.0,    0.0,   -0.0,  999.0
1999/01/01 07:00,  999.0,  999.0,  999.0,    0.0,  999.0,  999.0,   -0.1,   -0.2,   -0.2,   -0.2,   -0.1,   -0.3,    0.0,    0.0,  999.0,  999.0,  999.0,  999.0,  999.0,  999.0,  999.0,  999.0,  999.0,   -0.1,  999.0,    0.0,    0.0,  999.0,  999.0,  999.0,  999.0,    0.2,  999.0,   -0.1,  999.0,  999.0,  999.0,    0.0,   -0.0,    0.1,  999.0,  999.0,  999.0,    0.0,  999.0,  999.0,    0.1,    0.1,    0.0,    0.0,  999.0,  999.0
1999/01/01 07:10,  999.0,  999.0,  999.0,   -0.0,  999.0,   -0.1,   -0.2,   -0.3,   -0.2,   -0.2,   -0.3,   -0.6,   -0.2,    0.0,    0.0,  999.0,  999.0,  999.0,  999.0,  999.0,  999.0,  999.0,    0.1,   -0.0,   -0.1,   -0.0,    0.0,   -0.0,  999.0,  999.0,  999.0,  999.0,   -0.0,  999.0,  999.0,  999.0,   -0.4,   -0.0,  999.0,   -0.0,  999.0,  999.0,    0.1,   -0.1,  999.0,  999.0,    0.0,   -0.0,   -0.0,   -0.0,    0.2,   -0.1
1999/01/01 07:20,  999.0,  999.0,  999.0,    0.0,  999.0,  999.0,   -0.1,   -0.1,   -0.3,   -0.3,   -0.3,   -0.1,   -0.1,    0.1,   -0.0,  999.0,  999.0,  999.0,  999.0,  999.0,  999.0,  999.0,  999.0,  999.0,    0.1,   -0.0,   -0.0,    0.0,  999.0,  999.0,  999.0,  999.0,  999.0,  999.0,  999.0,  999.0,  999.0,   -0.0,   -0.0,   -0.1,  999.0,  999.0,  999.0,  999.0,  999.0,  999.0,    0.0,    0.1,   -0.1,   -0.0,    0.0,  999.0
1999/01/01 07:30,  999.0,  999.0,  999.0,   -0.0,  999.0,  999.0,   -0.0,   -0.1,   -0.3,   -0.2,   -0.1,   -0.0,  999.0,   -0.2,  999.0,  999.0,  999.0,  999.0,  999.0,  999.0,  999.0,  999.0,  999.0,    0.1,    0.3,    0.1,   -0.0,    0.2,  999.0,  999.0,  999.0,  999.0,  999.0,  999.0,  999.0,  999.0,  999.0,   -0.1,  999.0,   -0.0,  999.0,  999.0,    0.0,  999.0,  999.0,  999.0,    0.0,   -0.1,    0.0,  999.0,    0.0,  999.0
1999/01/01 07:40,  999.0,  999.0,  999.0,  999.0,  999.0,   -0.1,   -0.2,   -0.2,   -0.5,   -0.2,   -0.2,   -0.3,   -0.3,   -0.4,   -0.4,  999.0,   -0.4,  999.0,  999.0,  999.0,  999.0,  999.0,  999.0,  999.0,    0.0,    0.0,   -0.0,    0.1,  999.0,  999.0,  999.0,  999.0,  999.0,  999.0,  999.0,   -0.0,  999.0,    0.0,    0.0,   -0.0,  999.0,  999.0,   -0.0,  999.0,  999.0,  999.0,   -0.0,   -0.0,    0.0,  999.0,   -0.1,  999.0
1999/01/01 07:50,  999.0,  999.0,  999.0,   -0.0,  999.0,   -0.1,   -0.2,   -0.3,   -0.2,   -0.3,   -0.6,   -0.2,   -0.2,   -0.3,   -0.3,  999.0,  999.0,  999.0,  999.0,  999.0,  999.0,   -0.1,  999.0,   -0.1,    0.0,    0.1,   -0.1,    0.0,  999.0,  999.0,  999.0,  999.0,    0.0,  999.0,  999.0,  999.0,  999.0,  999.0,  999.0,   -0.0,  999.0,  999.0,   -0.0,    0.1,  999.0,  999.0,  999.0,    0.0,    0.1,   -0.0,    0.1,  999.0
1999/01/01 08:00,  999.0,  999.0,  999.0,  999.0,  999.0,   -0.1,   -0.1,   -0.2,   -0.3,   -0.2,   -0.2,   -0.3,   -0.5,   -0.4,   -0.6,   -0.5,  999.0,   -0.4,   -0.4,  999.0,  999.0,   -0.0,  999.0,   -0.4,    0.0,   -0.0,    0.1,   -0.1,  999.0,  999.0,   -0.0,  999.0,  999.0,  999.0,  999.0,  999.0,  999.0,    0.0,   -0.1,    0.0,  999.0,  999.0,  999.0,  999.0,  999.0,  999.0,  999.0,    0.0,   -0.0,    0.1,    0.0,  999.0
1999/01/01 08:10,  999.0,  999.0,  999.0,  999.0,  999.0,    0.0,    0.0,    0.1,   -0.0,   -0.1,   -0.1,   -0.2,   -0.3,   -0.2,   -0.3,   -0.2,   -0.2,   -0.0,  999.0,  999.0,  999.0,   -0.1,  999.0,  999.0,   -0.3,   -0.1,    0.0,    0.0,  999.0,    0.3,  999.0,    0.1,   -0.1,  999.0,  999.0,  999.0,  999.0,    0.0,    0.0,   -0.0,  999.0,  999.0,    0.0,  999.0,  999.0,  999.0,  999.0,  999.0,    0.1,   -0.1,    0.1,  999.0
1999/01/01 08:20,  999.0,  999.0,  999.0,  999.0,  999.0,  999.0,   -0.0,    0.1,    0.1,    0.3,   -0.0,   -0.0,   -0.1,    0.0,    0.1,    0.1,  999.0,    0.1,   -0.1,  999.0,  999.0,   -0.1,  999.0,   -0.0,   -0.1,   -0.1,    0.0,    0.0,  999.0,  999.0,  999.0,  999.0,  999.0,  999.0,  999.0,  999.0,  999.0,  999.0,   -0.2,   -0.0,  999.0,  999.0,  999.0,  999.0,  999.0,  999.0,  999.0,  999.0,   -0.1,    0.1,   -0.0,  999.0
1999/01/01 08:30,  999.0,  999.0,  999.0,  999.0,  999.0,  999.0,    0.0,    0.1,    0.1,    0.1,    0.1,   -0.0,   -0.2,   -0.2,   -0.1,   -0.1,   -0.1,   -0.4,   -0.4,   -0.4,  999.0,   -0.1,  999.0,   -0.1,  999.0,   -0.1,    0.0,   -0.1,  999.0,    0.0,  999.0,  999.0,    0.1,  999.0,  999.0,  999.0,  999.0,    0.0,   -0.1,    0.0,  999.0,  999.0,  999.0,  999.0,  999.0,  999.0,    0.0,   -0.0,    0.1,  999.0,   -0.1,  999.0
1999/01/01 08:40,  999.0,  999.0,  999.0,    0.0,  999.0,  999.0,    0.0,    0.2,    0.1,    0.1,    0.2,    0.1,   -0.0,   -0.0,  999.0,  999.0,    0.1,    0.1,   -0.1,  999.0,   -0.5,  999.0,  999.0,  999.0,   -0.0,    0.1,    0.0,    0.1,  999.0,  999.0,    0.0,    0.1,  999.0,  999.0,  999.0,  999.0,  999.0,   -0.0,   -0.0,    0.1,  999.0,  999.0,  999.0,  999.0,  999.0,  999.0,   -0.0,   -0.0,   -0.0,   -0.0,   -0.0,  999.0
1999/01/01 08:50,  999.0,  999.0,  999.0,  999.0,  999.0,   -0.0,    0.1,    0.1,    0.2,    0.1,    0.1,    0.1,    0.2,  999.0,  999.0,  999.0,   -0.0,   -0.1,  999.0,  999.0,  999.0,   -0.3,   -0.1,   -0.0,    0.1,   -0.1,    0.0,   -0.0,  999.0,   -0.0,    0.0,    0.1,   -0.0,  999.0,  999.0,  999.0,  999.0,   -0.0,   -0.0,   -0.0,  999.0,  999.0,  999.0,  999.0,  999.0,  999.0,  999.0,   -0.0,   -0.0,   -0.0,    0.1,  999.0
1999/01/01 09:00,  999.0,  999.0,  999.0,  999.0,  999.0,   -0.0,    0.1,    0.1,    0.1,    0.1,    0.2,    0.1,    0.1,    0.1,  999.0,  999.0,  999.0,    0.1,  999.0,  999.0,  999.0,  999.0,  999.0,   -0.1,   -0.0,   -0.0,   -0.0,  999.0,  999.0,  999.0,  999.0,  999.0,  999.0,  999.0,  999.0,  999.0,  999.0,    0.0,  999.0,   -0.2,  999.0,  999.0,  999.0,  999.0,  999.0,  999.0,  999.0,   -0.0,    0.0,    0.0,   -0.0,  999.0
1999/01/01 09:10,  999.0,  999.0,  999.0,  999.0,  999.0,    0.0,    0.2,    0.2,    0.2,    0.2,    0.1,    0.3,    0.3,    0.2,    0.5,  999.0,  999.0,  999.0,    0.1,  999.0,  999.0,  999.0,  999.0,   -0.1,  999.0,    0.0,   -0.1,    0.0,  999.0,  999.0,    0.0,  999.0,  999.0,  999.0,  999.0,  999.0,  999.0,    0.0,    0.0,    0.1,  999.0,  999.0,  999.0,  999.0,  999.0,  999.0,    0.1,  999.0,   -0.0,    0.0,  999.0,  999.0
1999/01/01 09:20,  999.0,  999.0,  999.0,  999.0,  999.0,  999.0,   -0.2,   -0.0,    0.1,    0.1,    0.1,    0.1,    0.1,    0.2,    0.2,  999.0,  999.0,  999.0,  999.0,  999.0,  999.0,    0.3,  999.0,   -0.1,   -0.1,    0.0,    0.1,    0.1,  999.0,  999.0,  999.0,  999.0,  999.0,  999.0,  999.0,  999.0,  999.0,   -0.1,    0.0,    0.0,  999.0,  999.0,  999.0,  999.0,  999.0,  999.0,    0.3,    0.0,    0.0,   -0.0,    0.1,  999.0
1999/01/01 09:30,  999.0,  999.0,  999.0,  999.0,  999.0,   -0.1,    0.5,    0.4,    0.2,   -0.0,    0.1,    0.1,   -0.1,    0.0,  999.0,    0.2,   -0.1,  999.0,  999.0,  999.0,   -0.1,    0.0,   -0.0,   -0.0,    0.1,   -0.0,    0.1,   -0.0,  999.0,  999.0,  999.0,  999.0,  999.0,  999.0,  999.0,  999.0,  999.0,   -0.0,    0.0,   -0.0,  999.0,  999.0,  999.0,  999.0,  999.0,  999.0,  999.0,  999.0,   -0.1,    0.0,  999.0,  999.0
1999/01/01 09:40,  999.0,  999.0,  999.0,  999.0,  999.0,   -0.5,   -0.2,    0.1,   -0.3,   -0.2,   -0.3,   -0.2,   -0.1,   -0.3,   -0.2,  999.0,  999.0,   -0.3,   -0.3,  999.0,    0.1,   -0.2,   -0.0,   -0.0,    0.1,    0.2,  999.0,    0.0,  999.0,   -0.1,  999.0,  999.0,  999.0,  999.0,  999.0,    0.0,  999.0,  999.0,   -0.0,    0.1,   -0.0,  999.0,  999.0,  999.0,  999.0,  999.0,  999.0,  999.0,  999.0,    0.0,  999.0,  999.0
1999/01/01 09:50,  999.0,  999.0,  999.0,  999.0,  999.0,   -0.1,   -0.1,    0.0,   -0.2,   -0.2,   -0.2,   -0.2,   -0.1,    0.2,  999.0,   -0.4,  999.0,   -0.3,   -0.4,   -0.3,   -0.1,    0.4,  999.0,  999.0,  999.0,  999.0,    0.0,   -0.0,  999.0,  999.0,  999.0,  999.0,  999.0,  999.0,  999.0,  999.0,  999.0,  999.0,   -0.1,  999.0,  999.0,  999.0,  999.0,  999.0,  999.0,  999.0,  999.0,  999.0,  999.0,   -0.0,  999.0,  999.0
1999/01/01 10:00,  999.0,  999.0,  999.0,  999.0,  999.0,   -0.1,   -0.0,    0.1,    0.0,   -0.1,   -0.1,   -0.2,   -0.2,   -0.3,  999.0,   -0.5,  999.0,  999.0,   -0.3,  999.0,  999.0,    0.1,   -0.0,    0.0,   -0.1,    0.1,   -0.0,   -0.0,  999.0,  999.0,   -0.0,  999.0,  999.0,  999.0,  999.0,  999.0,  999.0,  999.0,   -0.0,    0.0,  999.0,  999.0,  999.0,  999.0,  999.0,  999.0,  999.0,  999.0,    0.2,  999.0,  999.0,  999.0
1999/01/01 10:10,  999.0,  999.0,  999.0,   -0.0,  999.0,   -0.2,   -0.0,   -0.0,   -0.1,   -0.3,   -0.1,   -0.3,   -0.1,  999.0,  999.0,   -0.2,   -0.1,   -0.3,    0.0,  999.0,  999.0,   -0.3,  999.0,   -0.1,   -0.0,    0.0,   -0.0,  999.0,  999.0,  999.0,  999.0,  999.0,  999.0,  999.0,  999.0,  999.0,  999.0,  999.0,   -0.0,    0.0,  999.0,  999.0,  999.0,  999.0,  999.0,  999.0,  999.0,  999.0,  999.0,   -0.0,  999.0,  999.0
1999/01/01 10:20,  999.0,  999.0,  999.0,  999.0,  999.0,    0.2,   -0.1,   -0.0,    0.1,   -0.0,    0.0,   -0.1,   -0.0,  999.0,  999.0,    0.0,   -0.2,   -0.2,   -0.6,   -0.5,   -0.3,   -0.3,   -0.4,   -0.0,   -0.1,    0.1,   -0.1,  999.0,  999.0,  999.0,  999.0,  999.0,   -0.1,  999.0,  999.0,  999.0,  999.0,  999.0,    0.0,    0.0,  999.0,  999.0,  999.0,  999.0,  999.0,  999.0,  999.0,  999.0,    0.1,   -0.0,  999.0,  999.0
1999/01/01 10:30,  999.0,  999.0,  999.0,  999.0,  999.0,   -0.2,   -0.1,   -0.3,   -0.3,   -0.1,   -0.1,   -0.1,   -0.1,   -0.0,   -0.4,   -0.1,    0.2,  999.0,  999.0,  999.0,   -0.3,   -0.1,   -0.2,   -0.0,   -0.1,   -0.0,    0.1,    0.3,    0.3,  999.0,    0.0,   -0.0,    0.1,  999.0,  999.0,  999.0,  999.0,    0.0,    0.1,   -0.1,  999.0,  999.0,  999.0,  999.0,  999.0,  999.0,    0.0,  999.0,    0.1,   -0.0,  999.0,  999.0
1999/01/01 10:40,  999.0,  999.0,  999.0,  999.0,  999.0,   -1.0,   -0.6,   -0.5,   -0.4,   -0.3,   -0.4,   -0.2,   -0.1,    0.0,   -0.1,   -0.6,   -0.3,  999.0,  999.0,  999.0,   -0.1,  999.0,    0.0,   -0.1,   -0.1,   -0.0,   -0.0,   -0.0,   -0.0,  999.0,  999.0,  999.0,  999.0,  999.0,  999.0,  999.0,  999.0,  999.0,   -0.0,    0.1,  999.0,  999.0,  999.0,    0.0,  999.0,  999.0,  999.0,  999.0,    0.0,    0.0,  999.0,  999.0
1999/01/01 10:50,  999.0,  999.0,  999.0,  999.0,  999.0,    0.0,   -0.0,    0.1,   -0.1,   -0.2,   -0.2,   -0.1,   -0.0,   -0.0,   -0.0,   -0.0,  999.0,    0.2,   -0.3,   -0.1,   -0.4,   -0.1,   -0.1,    0.0,   -0.1,   -0.0,   -0.0,    0.1,  999.0,  999.0,  999.0,  999.0,  999.0,  999.0,  999.0,  999.0,  999.0,   -0.0,   -0.0,   -0.0,  999.0,  999.0,  999.0,  999.0,  999.0,  999.0,   -0.0,   -0.0,    0.1,   -0.0,   -0.0,  999.0
1999/01/01 11:00,  999.0,  999.0,  999.0,  999.0,   -0.0,   -0.0,   -0.2,    0.0,   -0.1,    0.0,    0.1,    0.0,    0.1,    0.0,   -0.0,   -0.1,   -0.2,    0.1,   -0.4,   -0.3,   -0.3,   -0.3,    0.1,   -0.1,   -0.1,   -0.1,   -0.1,   -0.1,  999.0,   -0.0,    0.0,   -0.1,  999.0,    0.1,    0.0,  999.0,    0.1,   -0.1,   -0.0,   -0.0,  999.0,  999.0,  999.0,  999.0,  999.0,  999.0,    0.1,   -0.1,  999.0,    0.1,    0.0,  999.0
1999/01/01 11:10,  999.0,  999.0,  999.0,  999.0,    0.0,    0.0,   -0.1,   -0.1,   -0.1,   -0.1,   -0.1,   -0.5,   -0.3,   -0.2,   -0.1,   -0.2,   -0.2,   -0.5,   -0.3,   -0.5,   -0.5,   -0.6,   -0.3,   -0.4,   -0.2,   -0.1,   -0.1,    0.0,  999.0,    0.1,   -0.1,   -0.0,    0.0,  999.0,  999.0,  999.0,  999.0,  999.0,   -0.1,   -0.1,    0.1,  999.0,   -0.1,   -0.0,  999.0,    0.0,   -0.0,    0.0,   -0.0,   -0.0,   -0.0,    0.1
1999/01/01 11:20,  999.0,  999.0,  999.0,  999.0,    0.0,    0.0,   -0.1,   -0.1,   -0.3,   -0.3,   -0.2,   -0.3,   -0.2,   -0.3,   -0.6,   -0.4,    0.1,    0.0,   -0.5,   -0.3,   -0.2,   -0.2,   -0.2,   -0.1,   -0.2,    0.0,   -0.1,   -0.2,   -0.5,    0.0,   -0.1,   -0.0,   -0.0,   -0.2,  999.0,  999.0,   -0.3,   -0.2,   -0.5,   -0.1,   -0.1,  999.0,    0.1,  999.0,  999.0,  999.0,    0.0,   -0.1,   -0.1,  999.0,    0.0,  999.0
1999/01/01 11:30,  999.0,  999.0,  999.0,  999.0,   -0.0,   -0.1,   -0.1,   -0.1,   -0.1,    0.1,   -0.2,   -0.1,  999.0,   -0.2,  999.0,  999.0,   -0.6,   -0.3,   -0.4,  999.0,  999.0,  999.0,  999.0,   -0.2,   -0.0,   -0.1,   -0.1,   -0.2,    0.0,   -0.0,    0.0,   -0.1,  999.0,   -0.0,    0.0,   -0.1,   -0.1,   -0.1,    0.1,   -0.1,  999.0,   -0.1,    0.1,  999.0,  999.0,  999.0,    0.0,  999.0,  999.0,   -0.0,  999.0,  999.0
1999/01/01 11:40,  999.0,  999.0,  999.0,  999.0,  999.0,    0.1,   -0.1,   -0.2,   -0.1,    0.0,   -0.3,   -0.4,   -0.2,   -0.1,  999.0,   -0.1,  999.0,   -0.4,   -0.5,  999.0,  999.0,   -0.2,   -0.1,   -0.1,   -0.1,   -0.0,   -0.0,   -0.1,  999.0,    0.0,  999.0,   -0.0,  999.0,   -0.0,  999.0,    0.1,    0.1,   -0.0,  999.0,   -0.1,    0.1,  999.0,    0.0,  999.0,  999.0,  999.0,   -0.0,   -0.0,   -0.1,    0.0,    0.0,  999.0
1999/01/01 11:50,  999.0,  999.0,  999.0,  999.0,    0.0,    0.2,    0.2,   -0.0,   -0.0,   -0.0,   -0.1,   -0.2,    0.2,   -0.2,   -0.4,   -0.6,   -0.5,   -0.5,   -0.2,  999.0,  999.0,   -0.6,   -0.1,   -0.1,   -0.1,   -0.0,   -0.0,    0.0,  999.0,  999.0,    0.1,  999.0,  999.0,  999.0,   -0.2,  999.0,  999.0,    0.0,   -0.0,    0.0,  999.0,  999.0,    0.0,  999.0,   -0.0,  999.0,  999.0,    0.0,   -0.0,   -0.0,   -0.0,  999.0
1999/01/01 12:00,  999.0,  999.0,  999.0,  999.0,   -0.2,   -0.1,    0.1,    0.0,   -0.0,   -0.0,   -0.0,   -0.1,    0.0,    0.0,   -0.1,   -0.2,   -0.1,   -0.7,  999.0,   -0.9,   -0.9,   -0.3,   -0.1,   -0.2,   -0.1,    0.0,   -0.0,   -0.1,  999.0,    0.1,   -0.0,  999.0,  999.0,  999.0,  999.0,  999.0,  999.0,   -0.0,   -0.2,   -0.2,  999.0,   -0.3,  999.0,   -0.2,  999.0,  999.0,    0.0,    0.0,    0.0,   -0.0,    0.1,    0.2
1999/01/01 12:10,  999.0,  999.0,  999.0,  999.0,  999.0,   -0.2,   -0.2,   -0.1,    0.1,  999.0,  999.0,  999.0,   -0.9,  999.0,   -1.4,   -1.2,   -1.3,   -0.7,   -1.0,   -0.4,   -1.0,   -0.8,   -0.5,   -0.3,   -0.1,   -0.1,   -0.1,   -0.0,  999.0,   -0.0,    0.1,  999.0,  999.0,   -0.0,  999.0,  999.0,  999.0,    0.0,  999.0,   -0.1,  999.0,  999.0,  999.0,   -0.2,  999.0,  999.0,   -0.0,   -0.0,    0.0,   -0.1,  999.0,   -0.0
1999/01/01 12:20,  999.0,  999.0,  999.0,  999.0,  999.0,    0.1,   -0.1,   -0.1,   -0.2,    0.0,   -0.4,   -0.6,   -0.5,   -0.2,   -0.4,  999.0,   -0.5,  999.0,  999.0,    0.1,  999.0,  999.0,    0.0,    0.1,   -0.0,    0.0,    0.0,  999.0,  999.0,  999.0,  999.0,   -0.2,   -0.1,    0.1,  999.0,  999.0,  999.0,    0.0,    0.1,   -0.0,  999.0,  999.0,   -0.0,  999.0,  999.0,    0.0,   -0.0,    0.0,   -0.0,  999.0,    0.0,    0.0
1999/01/01 12:30,  999.0,  999.0,  999.0,  999.0,   -0.2,   -0.2,   -0.0,   -0.0,   -0.3,   -0.6,   -0.6,   -0.3,   -0.7,   -0.7,   -0.5,   -0.6,   -0.9,   -1.2,   -1.4,   -1.3,   -1.1,   -1.2,   -1.2,   -1.1,   -0.9,   -0.6,   -0.3,   -0.3,   -0.0,   -0.0,    0.1,   -0.1,    0.0,   -0.3,  999.0,    0.0,    0.2,    0.0,    0.0,    0.1,  999.0,  999.0,  999.0,  999.0,  999.0,   -0.1,   -0.1,    0.1,    0.0,   -0.0,  999.0,  999.0
1999/01/01 12:40,  999.0,  999.0,  999.0,  999.0,  999.0,    0.0,   -0.1,   -0.1,   -0.3,   -0.5,   -0.8,   -0.8,   -0.7,   -0.7,   -0.5,   -0.7,   -0.7,   -1.6,   -1.6,   -1.6,   -1.5,   -1.3,   -1.1,   -0.7,   -0.8,   -0.6,   -0.4,   -0.3,   -0.4,   -0.4,  999.0,  999.0,   -0.1,   -0.0,  999.0,  999.0,  999.0,   -0.1,   -0.1,   -0.1,  999.0,  999.0,  999.0,  999.0,  999.0,  999.0,    0.0,  999.0,    0.0,    0.1,    0.0,  999.0
1999/01/01 12:50,  999.0,  999.0,  999.0,  999.0,  999.0,   -0.9,   -1.1,   -0.9,   -1.0,   -0.8,   -0.7,   -0.9,   -0.9,   -0.6,   -0.8,   -1.0,   -1.0,   -0.6,   -0.4,   -0.4,   -0.1,   -0.3,   -1.2,   -1.0,   -1.0,   -1.7,   -1.4,   -1.9,   -1.6,   -1.3,   -1.2,   -1.0,   -1.0,   -0.8,   -0.9,   -0.6,   -0.0,    0.1,   -0.1,   -0.0,  999.0,  999.0,    0.0,  999.0,  999.0,  999.0,   -0.2,  999.0,   -0.0,    0.0,   -0.0,  999.0
1999/01/01 13:00,  999.0,  999.0,  999.0,  999.0,    0.1,   -1.2,   -1.0,   -1.0,   -0.9,   -0.8,   -0.5,   -1.1,   -1.3,   -1.1,   -1.1,   -0.8,   -0.9,   -1.0,   -1.0,   -1.2,   -1.4,   -1.4,   -1.1,   -0.5,   -0.9,   -0.7,   -1.7,   -1.5,   -1.4,   -1.1,   -0.8,   -0.6,   -0.2,  999.0,   -0.2,  999.0,   -0.1,   -0.0,   -0.1,    0.0,  999.0,  999.0,    0.1,  999.0,  999.0,  999.0,  999.0,  999.0,  999.0,   -0.1,  999.0,  999.0
1999/01/01 13:10,  999.0,  999.0,  999.0,  999.0,  999.0,    0.0,   -0.3,   -0.1,   -0.2,   -0.2,   -0.4,   -0.2,   -1.1,   -1.1,   -1.2,   -1.2,   -1.3,   -1.1,   -0.9,   -0.8,   -0.7,   -0.3,   -0.5,   -0.3,   -0.2,  999.0,  999.0,   -0.0,  999.0,  999.0,   -0.1,  999.0,  999.0,  999.0,  999.0,  999.0,  999.0,   -0.0,    0.0,   -0.0,  999.0,  999.0,  999.0,  999.0,  999.0,  999.0,  999.0,  999.0,   -0.1,    0.1,  999.0,  999.0
1999/01/01 13:20,  999.0,  999.0,  999.0,  999.0,  999.0,   -1.5,   -0.7,   -0.8,   -1.6,   -1.2,   -1.4,   -1.5,   -1.7,   -1.3,   -1.8,   -1.6,   -1.6,   -1.6,   -1.4,   -1.1,   -0.9,   -0.7,   -0.3,   -0.4,   -0.1,   -0.1,  999.0,   -0.1,  999.0,  999.0,  999.0,  999.0,  999.0,  999.0,  999.0,  999.0,  999.0,   -0.1,   -0.1,   -0.1,  999.0,  999.0,   -0.0,  999.0,  999.0,  999.0,  999.0,  999.0,   -0.1,   -0.0,  999.0,  999.0
1999/01/01 13:30,  999.0,  999.0,  999.0,  999.0,  999.0,   -1.3,   -1.7,   -2.0,   -1.8,   -1.6,   -2.3,   -2.3,   -1.9,   -1.8,   -1.6,   -1.5,   -1.5,   -1.5,   -1.3,   -1.3,   -1.1,   -0.8,   -0.7,   -0.4,   -0.7,   -0.0,  999.0,  999.0,   -0.4,  999.0,  999.0,  999.0,  999.0,  999.0,  999.0,  999.0,  999.0,   -0.2,   -0.4,   -0.5,   -0.2,  999.0,   -0.3,  999.0,  999.0,  999.0,  999.0,  999.0,    0.0,   -0.1,   -0.1,  999.0
1999/01/01 13:40,  999.0,  999.0,  999.0,  999.0,  999.0,   -1.4,   -1.6,   -1.4,   -1.3,   -1.4,   -1.4,  999.0,  999.0,   -3.1,   -3.4,   -3.3,   -3.2,   -3.0,   -2.9,   -3.0,   -2.9,   -2.9,   -2.8,   -2.8,   -2.7,   -2.7,   -2.7,   -2.6,   -2.5,   -2.4,   -2.2,   -2.1,   -2.0,   -1.8,   -1.7,   -1.6,   -1.5,   -1.4,   -1.3,   -1.2,   -1.0,   -0.8,   -0.8,   -0.7,   -0.7,   -0.1,   -0.1,  999.0,   -0.0,    0.0,    0.1,  999.0
1999/01/01 13:50,  999.0,  999.0,  999.0,  999.0,   -4.4,   -4.3,   -4.5,   -4.5,   -4.5,   -4.6,   -4.7,   -4.7,   -4.4,   -4.1,   -4.1,   -4.0,   -3.8,   -3.6,   -3.4,   -3.3,   -3.3,   -3.3,   -3.2,   -3.1,   -3.1,   -3.0,   -2.9,   -2.9,   -2.9,   -2.8,   -2.7,   -2.7,   -2.6,   -2.5,   -2.5,   -2.3,   -2.3,   -2.2,   -1.7,   -1.3,   -1.1,   -1.0,   -0.7,   -0.8,   -0.7,  999.0,  999.0,  999.0,   -0.1,   -0.0,  999.0,  999.0
1999/01/01 14:00,  999.0,  999.0,  999.0,  999.0,   -4.3,   -4.4,   -4.2,   -4.1,   -4.2,   -4.1,   -3.8,   -3.7,   -3.8,   -3.8,   -3.7,   -3.6,   -3.2,   -3.0,   -3.0,   -3.0,   -3.1,   -3.4,   -3.3,   -3.2,   -2.9,   -3.2,   -3.0,   -2.9,   -2.9,   -2.8,   -2.9,   -3.0,   -2.8,   -2.9,   -2.9,   -3.3,   -3.4,   -3.2,   -1.6,   -1.2,   -1.1,   -1.1,   -1.0,   -0.8,   -0.6,   -0.8,   -0.6,   -0.2,    0.1,   -0.0,  999.0,   -0.2
1999/01/01 14:10,  999.0,  999.0,  999.0,  999.0,   -3.8,   -4.1,   -4.0,   -3.9,   -3.7,   -3.9,   -3.7,   -3.6,   -3.6,   -3.1,   -3.0,   -2.8,   -2.7,   -2.8,   -2.6,   -2.6,   -2.6,   -2.6,   -2.5,   -2.7,   -2.8,   -2.8,   -2.6,   -2.5,   -2.7,   -2.7,   -2.8,   -2.7,   -2.5,   -2.2,   -2.3,   -2.3,  999.0,  999.0,   -0.8,   -0.6,   -0.7,  999.0,  999.0,  999.0,  999.0,  999.0,    0.0,  999.0,   -0.0,  999.0,  999.0,  999.0
1999/01/01 14:20,  999.0,  999.0,  999.0,  999.0,   -3.5,   -3.1,   -3.3,   -3.2,   -3.1,   -3.1,   -2.9,   -2.6,   -2.0,   -2.2,   -2.7,   -3.0,   -2.3,   -2.8,   -2.9,   -2.8,   -2.6,   -2.6,   -2.5,   -2.7,   -2.6,   -2.3,   -2.3,   -2.0,   -2.1,   -2.5,   -2.7,  999.0,  999.0,  999.0,  999.0,   -1.5,  999.0,  999.0,   -0.4,   -0.8,   -0.7,  999.0,  999.0,  999.0,  999.0,  999.0,  999.0,  999.0,   -0.0,   -0.0,  999.0,  999.0
1999/01/01 14:30,  999.0,  999.0,  999.0,  999.0,  999.0,   -2.1,   -2.7,   -2.7,   -2.8,   -2.7,   -2.9,   -2.6,   -2.5,   -2.4,   -2.5,   -2.6,   -2.5,   -2.4,   -2.4,   -2.3,   -2.1,   -1.9,   -1.9,   -1.8,   -1.6,   -1.5,   -1.4,   -1.4,   -1.4,   -1.0,   -1.1,   -1.3,   -1.5,  999.0,   -1.3,  999.0,  999.0,   -0.1,  999.0,    0.1,  999.0,  999.0,  999.0,  999.0,  999.0,  999.0,  999.0,   -0.1,    0.0,    0.0,  999.0,  999.0
1999/01/01 14:40,  999.0,  999.0,  999.0,  999.0,  999.0,   -0.8,   -0.7,   -0.2,   -0.2,   -0.2,   -1.1,   -1.5,   -2.0,   -1.8,   -1.8,   -1.9,   -1.9,   -1.8,   -1.7,   -1.5,   -1.5,   -1.5,   -1.4,   -1.4,   -1.3,   -1.5,   -1.4,   -1.2,   -1.1,   -1.0,   -0.9,   -0.6,   -0.7,   -0.6,   -0.5,   -0.4,  999.0,    0.1,  999.0,  999.0,  999.0,  999.0,  999.0,  999.0,  999.0,  999.0,  999.0,  999.0,   -0.0,   -0.0,  999.0,  999.0
1999/01/01 14:50,  999.0,  999.0,  999.0,  999.0,   -2.6,   -2.2,   -1.3,   -1.2,   -1.1,   -1.2,   -1.3,   -0.8,   -1.2,   -1.6,   -1.7,   -1.7,   -1.8,   -1.8,   -1.8,   -1.9,   -1.9,   -1.9,   -1.8,   -1.7,   -1.7,   -1.6,   -1.4,   -1.2,   -1.1,   -0.9,   -0.8,   -0.6,   -0.4,   -0.3,   -0.5,  999.0,  999.0,   -0.0,   -0.0,    0.4,  999.0,  999.0,  999.0,  999.0,  999.0,   -0.2,  999.0,  999.0,   -0.0,    0.1,    0.0,  999.0
1999/01/01 15:00,  999.0,  999.0,  999.0,  999.0,   -3.4,  999.0,  999.0,   -3.2,   -3.7,   -2.8,   -2.6,   -2.4,   -1.9,   -2.0,   -1.7,   -1.8,   -1.9,   -1.9,   -1.8,   -1.7,   -1.7,   -1.6,   -1.7,   -1.7,   -1.8,   -1.8,   -1.8,   -1.7,   -1.7,   -1.7,   -1.6,   -1.7,   -1.6,   -1.3,   -1.3,   -1.1,   -0.7,   -0.6,   -0.2,   -0.2,    0.0,  999.0,  999.0,  999.0,  999.0,  999.0,  999.0,   -0.2,   -0.1,   -0.1,    0.0,  999.0
1999/01/01 15:10,  999.0,  999.0,  999.0,  999.0,   -4.4,   -4.5,   -4.0,   -4.3,   -3.5,   -3.8,   -3.6,   -3.8,   -3.5,   -3.4,   -3.2,   -3.3,   -3.5,   -3.4,   -2.9,   -3.3,   -3.3,   -3.3,   -3.4,   -3.4,   -3.4,   -3.4,   -3.2,   -2.7,   -3.7,   -3.1,   -3.2,   -2.8,   -3.1,   -3.2,   -3.2,   -3.4,   -3.3,   -2.9,   -1.7,   -1.5,   -1.3,   -1.0,   -0.9,   -1.0,   -0.9,   -0.9,   -0.6,   -0.5,   -0.3,   -0.3,  999.0,  999.0
1999/01/01 15:20,  999.0,  999.0,  999.0,  999.0,   -5.0,   -5.0,   -5.2,   -5.1,   -5.0,   -5.1,   -5.1,   -5.1,   -5.0,   -5.0,   -4.9,   -4.9,   -4.9,   -5.0,   -4.9,   -4.8,   -4.8,   -4.9,   -4.9,   -5.0,   -5.0,   -5.0,   -4.9,   -4.7,   -4.4,   -4.3,   -4.2,   -4.1,   -4.1,   -4.0,   -3.9,   -3.9,   -3.9,   -3.6,   -3.0,   -2.1,   -1.7,   -1.5,   -1.3,   -1.3,   -1.3,   -1.1,   -0.9,   -0.6,   -0.5,   -0.3,   -0.2,   -0.0
1999/01/01 15:30,  999.0,  999.0,  999.0,  999.0,   -5.3,   -5.4,   -5.4,   -5.4,   -5.2,   -5.2,   -5.2,   -5.2,   -5.4,   -5.6,   -5.6,   -5.7,   -5.7,   -5.6,   -5.6,   -5.5,   -5.5,   -5.6,   -5.4,   -5.4,   -5.3,   -5.2,   -5.0,   -4.6,   -4.0,   -3.8,   -3.7,   -4.0,   -3.4,   -3.6,   -3.3,   -3.6,   -3.1,   -3.3,   -2.6,   -2.1,   -1.8,   -1.5,   -1.4,   -1.3,   -1.3,   -1.2,   -0.9,   -0.8,   -0.8,   -0.8,   -0.5,   -0.5
1999/01/01 15:40,  999.0,  999.0,  999.0,  999.0,   -4.0,   -4.1,   -5.2,   -4.5,   -4.6,   -4.0,   -4.0,   -4.0,   -4.4,   -4.0,   -4.5,   -3.8,   -3.3,   -3.6,   -3.5,   -3.4,   -3.3,   -3.2,   -3.2,   -3.0,   -2.8,   -2.6,   -2.5,   -2.4,   -2.0,   -1.9,   -1.9,   -1.8,   -1.7,   -1.5,   -1.4,   -1.2,   -1.4,   -1.2,   -1.0,   -0.9,   -0.9,   -0.7,   -0.5,   -0.3,  999.0,   -0.0,   -0.1,   -0.1,    0.0,   -0.3,   -0.5,  999.0
1999/01/01 15:50,  999.0,  999.0,  999.0,  999.0,   -4.0,   -3.6,   -3.0,   -3.0,   -3.1,   -2.7,   -2.2,   -2.2,   -2.3,   -2.5,   -3.4,   -3.4,   -3.1,   -2.3,   -2.3,   -2.4,   -2.5,   -2.3,   -2.0,   -1.5,   -1.8,   -1.4,   -1.4,   -1.4,   -1.8,   -1.5,   -1.4,   -1.9,   -1.8,   -1.5,   -1.3,   -1.2,   -1.0,   -0.9,   -0.8,   -0.7,   -1.0,   -0.4,   -0.3,   -0.3,  999.0,  999.0,   -0.0,   -0.0,   -0.0,  999.0,    0.1,  999.0
1999/01/01 16:00,  999.0,  999.0,  999.0,  999.0,   -3.9,   -4.1,   -4.3,   -4.3,   -3.8,   -3.7,   -3.6,   -3.5,   -3.1,   -2.9,   -2.9,   -2.9,   -2.8,   -3.0,   -3.1,   -3.0,   -3.1,   -3.2,   -3.3,   -3.2,   -3.2,   -3.2,   -2.9,   -2.7,   -2.6,   -2.5,   -2.5,   -2.5,   -2.5,   -2.6,   -2.5,   -2.4,   -2.5,   -2.4,   -2.4,   -2.0,   -1.7,   -1.4,   -1.1,   -1.2,   -0.9,   -0.6,   -0.3,   -0.3,   -0.3,   -0.2,   -0.2,   -0.2
1999/01/01 16:10,  999.0,  999.0,  999.0,  999.0,   -5.0,   -5.1,   -5.2,   -5.4,   -5.4,   -5.0,   -4.8,   -4.5,   -4.3,   -4.4,   -4.2,   -4.5,   -4.7,   -4.7,   -5.0,   -5.4,   -5.3,   -5.2,   -5.3,   -5.3,   -5.1,   -4.9,   -4.7,   -4.5,   -4.4,   -4.3,   -4.5,   -4.7,   -4.8,   -5.1,   -5.2,   -5.1,   -4.8,   -4.4,   -4.0,   -3.4,   -3.0,   -2.7,   -2.5,   -2.2,   -2.0,   -2.0,   -1.8,   -1.5,   -1.3,   -1.1,   -0.8,   -0.5
1999/01/01 16:20,  999.0,  999.0,  999.0,  999.0,   -7.1,   -6.8,   -6.8,   -6.7,   -6.8,   -6.5,   -6.7,   -7.3,   -7.3,   -7.1,   -7.2,   -7.2,   -7.2,   -7.2,   -7.2,   -7.2,   -7.1,   -7.1,   -7.0,   -7.1,   -7.2,   -7.4,   -7.6,   -8.0,   -7.8,   -8.0,   -8.0,   -8.1,   -7.7,   -7.5,   -7.2,   -6.8,   -6.2,   -5.6,   -4.9,   -4.5,   -4.5,   -4.3,   -4.2,   -4.0,   -3.7,   -3.3,   -2.9,   -2.6,   -2.4,   -2.1,   -1.0,   -0.8
1999/01/01 16:30,  999.0,  999.0,  999.0,  999.0,   -6.7,   -6.7,   -6.7,   -6.6,   -6.8,   -6.8,   -6.9,   -7.0,   -7.0,   -6.9,   -6.9,   -6.9,   -7.0,   -7.0,   -7.0,   -7.1,   -7.0,   -6.9,   -6.9,   -6.9,   -6.9,   -6.9,   -6.9,   -6.9,   -6.9,   -6.8,   -6.7,   -6.7,   -6.6,   -6.5,   -6.2,   -5.8,   -4.7,   -3.7,   -2.8,   -2.2,   -1.8,   -2.3,   -2.1,   -2.0,   -1.9,   -1.8,   -1.7,   -1.5,   -1.4,   -1.3,   -1.2,   -1.1
1999/01/01 16:40,  999.0,  999.0,  999.0,  999.0,   -6.6,   -6.6,   -6.6,   -6.6,   -6.5,   -6.6,   -6.8,   -7.1,   -7.2,   -7.3,   -7.4,   -7.5,   -7.5,   -7.5,   -7.5,   -7.6,   -7.5,   -7.4,   -7.4,   -7.4,   -7.5,   -7.6,   -7.8,   -8.0,   -8.1,   -8.2,   -8.2,   -8.2,   -8.2,   -8.2,   -7.5,   -6.4,   -5.0,   -3.9,   -3.0,   -2.3,   -2.0,   -1.9,   -1.8,   -1.6,   -1.5,   -1.4,   -1.2,   -1.1,   -1.1,   -1.1,   -1.1,   -1.0
1999/01/01 16:50,  999.0,  999.0,  999.0,  999.0,   -6.6,   -6.8,   -6.9,   -6.9,   -6.8,   -6.8,   -6.9,   -7.1,   -7.2,   -7.2,   -7.3,   -7.3,   -7.3,   -7.1,   -7.0,   -7.0,   -7.1,   -7.1,   -7.2,   -7.2,   -7.2,   -7.3,   -7.2,   -7.2,   -7.2,   -7.4,   -7.5,   -7.6,   -7.7,   -7.6,   -6.9,   -5.6,  999.0,  999.0,  999.0,   -2.1,   -2.0,   -1.9,   -1.9,   -1.8,   -1.6,   -1.5,   -1.5,   -1.3,   -1.3,   -1.2,   -1.1,   -1.1
1999/01/01 17:00,  999.0,  999.0,  999.0,  999.0,   -7.2,   -7.3,   -7.4,   -7.5,   -7.5,   -7.6,   -7.6,   -7.7,   -7.8,   -7.9,   -7.9,   -7.9,   -7.9,   -8.0,   -7.9,   -7.8,   -7.8,   -7.9,   -7.9,   -7.9,   -8.0,   -8.1,   -8.2,   -8.3,   -8.3,   -8.3,   -8.3,   -8.3,   -8.4,   -8.0,   -7.1,   -5.4,  999.0,  999.0,   -2.5,   -2.2,   -2.0,   -1.9,   -1.8,   -1.7,   -1.6,   -1.6,   -1.5,   -1.5,   -1.5,   -1.5,   -1.5,   -1.5
1999/01/01 17:10,  999.0,  999.0,  999.0,  999.0,   -7.0,   -7.1,   -7.2,   -7.2,   -7.3,   -7.3,   -7.2,   -7.3,   -7.5,   -7.6,   -7.6,   -7.6,   -7.4,   -7.3,   -7.3,   -7.4,   -7.4,   -7.4,   -7.5,   -7.5,   -7.5,   -7.6,   -7.7,   -7.8,   -7.8,   -7.8,   -8.0,   -8.1,   -8.1,   -7.8,   -6.8,   -4.5,  999.0,   -2.6,   -2.3,   -2.1,   -1.9,   -1.7,   -1.6,   -1.5,   -1.5,   -1.5,   -1.5,   -1.6,   -1.7,   -1.6,   -1.6,   -1.5
1999/01/01 17:20,  999.0,  999.0,  999.0,  999.0,   -6.2,   -6.2,   -6.3,   -6.1,   -6.1,   -6.0,   -5.9,   -6.0,   -6.0,   -6.1,   -6.0,   -6.0,   -6.0,   -6.1,   -6.1,   -6.2,   -6.3,   -6.4,   -6.3,   -6.3,   -6.4,   -6.4,   -6.5,   -6.5,   -6.6,   -6.7,   -6.8,   -6.8,   -6.9,   -6.8,   -6.6,   -5.4,  999.0,  999.0,   -2.2,   -1.9,   -1.7,   -1.6,   -1.5,   -1.5,   -1.5,   -1.5,   -1.5,   -1.5,   -1.6,   -1.7,   -1.6,   -1.6
1999/01/01 17:30,  999.0,  999.0,  999.0,  999.0,  999.0,  999.0,  999.0,  999.0,  999.0,  999.0,  999.0,   -6.1,   -5.4,   -6.1,   -6.0,   -5.9,   -5.9,  999.0,  999.0,   -5.8,   -5.6,   -5.4,   -5.3,   -5.2,   -5.2,   -5.1,   -5.0,   -5.0,   -4.9,   -4.9,   -4.8,   -4.9,   -5.0,   -5.0,   -4.9,   -4.9,   -4.3,   -2.9,  999.0,   -1.5,   -1.4,   -1.4,   -1.3,   -1.3,   -1.2,   -1.1,   -1.0,   -1.0,   -0.9,   -1.3,  999.0,  999.0
1999/01/01 17:40,  999.0,  999.0,  999.0,  999.0,  999.0,   -3.3,   -3.0,   -2.9,   -3.2,   -2.9,   -2.9,   -3.4,   -3.1,   -2.7,   -2.9,   -3.1,   -2.9,  999.0,  999.0,  999.0,  999.0,  999.0,   -2.7,   -2.5,   -2.6,   -2.1,   -2.3,   -2.1,   -2.1,   -1.2,   -0.1,   -4.0,   -4.6,  999.0,  999.0,  999.0,  999.0,   -1.5,   -1.4,   -1.1,   -0.9,   -1.0,   -1.1,   -0.8,   -0.9,   -0.9,   -0.9,   -0.8,   -0.8,   -0.7,  999.0,  999.0
1999/01/01 17:50,  999.0,  999.0,  999.0,  999.0,   -2.8,   -2.6,   -2.8,   -2.7,   -2.4,   -2.5,   -2.6,   -2.7,   -2.9,   -2.9,   -2.6,   -2.3,   -2.3,   -2.3,   -2.2,   -2.3,   -2.2,   -2.2,   -2.1,   -2.1,   -2.0,   -2.0,  999.0,  999.0,  999.0,  999.0,  999.0,  999.0,  999.0,  999.0,  999.0,  999.0,  999.0,   -2.6,   -1.8,   -1.3,   -1.0,   -1.0,   -0.9,   -0.9,   -1.0,   -0.9,   -0.9,  999.0,  999.0,  999.0,  999.0,   -1.3
1999/01/01 18:00,  999.0,  999.0,  999.0,  999.0,   -3.1,   -3.0,   -2.9,   -3.0,   -2.7,   -2.8,   -3.0,   -3.0,   -2.9,   -2.7,   -2.4,   -2.3,   -2.1,   -2.1,   -2.0,   -2.0,   -1.9,   -1.9,   -1.8,   -1.7,   -1.7,   -1.5,   -1.4,   -1.5,   -1.6,   -1.5,   -1.5,   -1.2,   -1.5,   -1.3,   -1.3,   -1.2,  999.0,   -2.2,   -1.9,   -1.3,   -1.5,   -1.5,   -2.0,   -1.6,   -1.8,   -1.6,   -1.5,   -1.4,   -1.3,   -1.3,   -1.3,   -1.3
1999/01/01 18:10,  999.0,  999.0,  999.0,  999.0,   -3.7,   -4.1,  999.0,  999.0,  999.0,  999.0,   -2.4,   -2.8,   -2.9,   -3.0,   -3.4,   -3.0,   -2.6,   -2.4,   -2.2,   -2.2,   -2.2,   -2.3,  999.0,  999.0,   -3.7,   -3.2,   -3.2,   -3.9,   -4.0,   -4.0,   -4.1,   -4.0,  999.0,  999.0,  999.0,  999.0,  999.0,  999.0,  999.0,   -2.3,   -2.0,   -1.8,   -1.8,   -1.7,   -1.7,   -1.6,   -1.5,   -1.4,   -1.3,   -1.3,   -1.2,   -1.2
1999/01/01 18:20,  999.0,  999.0,  999.0,  999.0,   -5.3,   -5.1,   -5.2,   -5.2,   -4.9,   -5.0,   -5.4,   -5.6,   -5.7,   -5.8,   -6.1,   -6.1,   -6.2,   -6.2,   -6.2,   -6.1,   -6.0,   -5.8,   -5.8,   -5.7,   -5.7,   -5.7,   -5.8,   -5.8,   -5.9,   -5.8,   -5.9,   -5.8,   -6.0,   -6.0,   -6.1,   -5.9,   -4.9,   -3.3,   -2.4,   -2.1,   -1.8,   -1.7,   -1.6,   -1.6,   -1.6,   -1.5,   -1.5,   -1.4,   -1.4,   -1.4,   -1.3,   -1.3
1999/01/01 18:30,  999.0,  999.0,  999.0,  999.0,   -6.0,   -5.4,   -5.3,   -5.3,   -5.7,   -5.8,   -5.8,   -5.7,   -5.7,   -5.7,   -5.8,   -5.9,   -5.8,   -5.9,   -5.9,   -6.0,   -6.1,   -6.1,   -6.2,   -6.4,   -6.4,   -6.4,   -6.4,   -6.4,   -6.4,   -6.3,   -6.3,   -6.3,   -6.2,   -6.0,   -5.9,   -5.8,   -4.5,   -3.1,   -2.3,   -1.9,   -1.7,   -1.6,   -1.5,   -1.5,   -1.5,   -1.4,   -1.4,   -1.4,   -1.4,   -1.3,   -1.3,   -1.3
1999/01/01 18:40,  999.0,  999.0,  999.0,  999.0,   -4.8,   -4.7,   -4.7,   -4.8,   -4.9,   -5.2,   -5.3,   -5.3,   -5.3,   -5.2,   -5.1,   -5.1,   -5.2,   -5.2,   -5.3,   -5.4,   -5.5,   -5.6,   -5.6,   -5.6,   -5.6,   -5.6,   -5.6,   -5.7,   -5.6,   -5.6,   -5.6,   -5.5,   -5.6,   -5.7,   -5.7,   -5.0,   -3.7,   -2.5,   -2.1,   -1.8,   -1.7,   -1.7,   -1.6,   -1.6,   -1.5,   -1.4,   -1.4,   -1.3,   -1.3,   -1.3,   -1.3,   -1.3
1999/01/01 18:50,  999.0,  999.0,  999.0,  999.0,   -5.9,   -5.2,   -5.2,   -5.4,   -5.4,   -5.4,   -5.4,   -5.4,   -5.5,   -5.4,   -5.4,   -5.6,   -5.7,   -5.8,   -6.0,   -6.1,   -6.1,   -6.2,   -6.3,   -6.4,   -6.4,   -6.5,   -6.5,   -6.5,   -6.5,   -6.5,   -6.4,   -6.5,   -6.5,   -6.5,   -6.2,   -4.8,  999.0,  999.0,   -2.3,   -2.0,   -1.9,   -1.7,   -1.6,   -1.5,   -1.4,   -1.3,   -1.2,   -1.2,   -1.2,   -1.3,   -1.3,   -1.3
1999/01/01 19:00,  999.0,  999.0,  999.0,  999.0,   -5.8,   -5.8,   -5.6,   -5.6,   -5.7,   -5.7,   -5.7,   -5.7,   -5.8,   -5.9,   -5.9,   -5.9,   -5.9,   -6.0,   -6.1,   -6.1,   -6.1,   -6.1,   -6.1,   -6.2,   -6.2,   -6.2,   -6.3,   -6.3,   -6.3,   -6.3,   -6.4,   -6.5,   -6.5,   -6.4,   -5.9,   -5.0,   -4.2,   -3.4,   -2.8,   -2.4,   -2.2,   -2.0,   -1.8,   -1.6,   -1.5,   -1.5,   -1.5,   -1.4,   -1.4,   -1.4,   -1.3,   -1.3
1999/01/01 19:10,  999.0,  999.0,  999.0,  999.0,   -5.5,   -5.7,   -5.8,   -5.7,   -5.7,   -5.8,   -5.7,   -5.7,   -5.9,   -6.0,   -6.1,   -6.1,   -6.2,   -6.2,   -6.3,   -6.4,   -6.4,   -6.4,   -6.5,   -6.6,   -6.6,   -6.6,   -6.7,   -6.7,   -6.7,   -6.8,   -6.8,   -6.7,   -6.6,   -6.5,   -6.2,   -5.3,   -4.2,   -3.2,   -2.4,   -1.8,   -1.7,   -1.7,   -1.5,   -1.5,   -1.4,   -1.4,   -1.4,   -1.4,   -1.4,   -1.3,   -1.2,   -1.1
1999/01/01 19:20,  999.0,  999.0,  999.0,  999.0,   -6.0,   -6.1,   -6.1,   -6.0,   -6.3,   -6.3,   -6.4,   -6.4,   -6.4,   -6.3,   -6.2,   -6.3,   -6.4,   -6.4,   -6.5,   -6.6,   -6.6,   -6.5,   -6.5,   -6.5,   -6.6,   -6.6,   -6.7,   -6.8,   -6.8,   -6.8,   -6.7,   -6.7,   -6.7,   -6.4,   -5.5,   -4.3,   -3.3,   -2.8,   -2.3,   -1.9,   -1.7,   -1.5,   -1.4,   -1.4,   -1.4,   -1.4,   -1.4,   -1.3,   -1.3,   -1.3,   -1.2,   -1.2
1999/01/01 19:30,  999.0,  999.0,  999.0,  999.0,   -6.2,   -6.2,   -6.3,   -6.3,   -6.5,   -6.6,   -6.8,   -6.8,   -6.8,   -6.8,   -6.8,   -6.8,   -6.7,   -6.7,   -6.6,   -6.6,   -6.5,   -6.4,   -6.4,   -6.3,   -6.3,   -6.3,   -6.3,   -6.1,   -6.0,   -6.0,   -5.8,   -6.0,   -6.1,   -6.4,   -5.7,   -4.4,  999.0,   -2.8,   -2.3,   -1.9,   -1.7,   -1.6,   -1.5,   -1.5,   -1.4,   -1.4,   -1.4,   -1.3,   -1.3,   -1.3,   -1.2,   -1.2
1999/01/01 19:40,  999.0,  999.0,  999.0,  999.0,   -5.6,   -5.4,   -5.5,   -5.4,   -5.3,   -5.4,   -5.5,   -5.6,   -5.7,   -5.7,   -5.8,   -5.9,   -5.9,   -5.9,   -5.8,   -5.8,   -6.0,   -5.9,   -5.9,   -5.8,   -5.7,   -5.7,   -5.7,   -5.7,   -5.6,   -5.6,   -5.6,   -5.7,   -5.9,   -6.0,   -5.6,   -4.2,  999.0,   -2.6,   -2.1,   -1.8,   -1.7,   -1.6,   -1.5,   -1.5,   -1.4,   -1.3,   -1.3,   -1.2,   -1.2,   -1.3,   -1.2,   -1.2
1999/01/01 19:50,  999.0,  999.0,  999.0,  999.0,   -5.6,   -5.5,   -5.3,   -5.3,   -5.1,   -5.2,   -5.2,   -5.2,   -5.3,   -5.4,   -5.5,   -5.7,   -5.7,   -5.8,   -5.8,   -5.7,   -5.8,   -5.8,   -5.8,   -5.8,   -5.6,   -5.4,   -5.4,   -5.3,   -5.2,   -5.3,   -5.2,   -5.0,   -5.0,   -4.9,   -4.6,   -4.1,   -3.2,   -2.3,   -1.7,   -1.5,   -1.6,   -1.6,   -1.5,   -1.4,   -1.4,   -1.3,   -1.3,   -1.2,   -1.2,   -1.1,   -1.1,   -1.1
1999/01/01 20:00,  999.0,  999.0,  999.0,  999.0,   -5.4,   -5.3,   -5.3,   -5.3,   -5.4,   -5.5,   -5.5,   -5.6,   -5.6,   -5.6,   -5.7,   -5.8,   -5.8,   -5.9,   -5.9,   -5.9,   -5.9,   -5.8,   -5.7,   -5.6,   -5.4,   -5.4,   -5.4,   -5.5,   -5.5,   -5.4,   -5.5,   -5.4,   -5.4,   -5.3,   -5.3,   -4.7,   -3.5,   -2.7,   -2.2,   -1.8,   -1.6,   -1.5,   -1.4,   -1.3,   -1.3,   -1.2,   -1.2,   -1.1,   -1.1,   -1.1,   -1.1,   -1.1
1999/01/01 20:10,  999.0,  999.0,  999.0,  999.0,   -5.3,  999.0,   -5.1,   -5.2,   -5.2,   -5.3,   -5.4,   -5.4,   -5.4,   -5.4,   -5.4,   -5.3,   -5.4,   -5.4,   -5.4,   -5.4,   -5.4,   -5.4,   -5.4,   -5.4,   -5.4,   -5.4,   -5.4,   -5.5,   -5.5,   -5.4,   -5.4,   -5.4,   -5.4,   -5.4,   -5.2,   -4.1,   -3.2,   -2.5,   -2.0,   -1.8,   -1.6,   -1.5,   -1.4,   -1.4,   -1.4,   -1.3,   -1.3,   -1.2,   -1.2,   -1.2,   -1.1,   -1.1
1999/01/01 20:20,  999.0,  999.0,  999.0,  999.0,   -5.6,   -5.6,   -5.7,   -5.7,   -5.7,   -5.8,   -5.8,   -5.9,   -5.9,   -5.7,   -5.6,   -5.6,   -5.5,   -5.5,   -5.5,   -5.5,   -5.5,   -5.5,   -5.4,   -5.3,   -5.3,   -5.3,   -5.2,   -5.2,   -5.3,   -5.5,   -5.5,   -5.5,   -5.7,   -5.8,   -5.2,   -3.9,   -3.0,   -2.3,   -1.9,   -1.7,   -1.6,   -1.5,   -1.4,   -1.4,   -1.3,   -1.3,   -1.3,   -1.3,   -1.2,   -1.2,   -1.2,   -1.2
1999/01/01 20:30,  999.0,  999.0,  999.0,  999.0,   -5.9,   -5.9,   -6.0,   -6.0,   -6.1,   -6.0,   -6.0,   -6.0,   -5.7,   -5.7,   -5.7,   -5.8,   -5.6,   -5.5,   -5.4,   -5.3,   -5.2,   -5.3,   -5.3,   -5.4,   -5.6,   -5.7,   -5.7,   -5.7,   -5.6,   -5.5,   -5.5,   -5.6,   -5.6,   -5.7,   -5.5,   -4.0,   -2.8,   -2.3,   -1.9,   -1.7,   -1.6,   -1.6,   -1.6,   -1.6,   -1.5,   -1.4,   -1.3,   -1.3,   -1.2,   -1.2,   -1.2,   -1.2
1999/01/01 20:40,  999.0,  999.0,  999.0,  999.0,   -5.8,   -5.8,   -5.9,   -5.9,   -6.0,   -6.0,   -6.0,   -5.9,   -5.7,   -5.7,   -5.7,   -5.6,   -5.8,   -5.8,   -5.6,   -5.6,   -5.4,   -5.1,   -4.9,   -4.7,   -4.7,   -4.7,   -4.8,   -5.0,   -5.1,   -5.2,   -5.4,   -5.5,   -5.5,   -5.4,   -5.2,   -4.3,   -3.1,   -2.3,   -1.9,   -1.8,   -1.8,   -1.7,   -1.7,   -1.6,   -1.5,   -1.4,   -1.3,   -1.3,   -1.2,   -1.2,   -1.1,   -1.1
1999/01/01 20:50,  999.0,  999.0,  999.0,  999.0,   -5.8,   -5.8,   -6.0,   -6.0,   -6.3,   -6.3,   -6.3,   -6.2,   -6.2,   -6.2,   -6.0,   -5.9,   -5.9,   -5.8,   -5.7,   -5.4,   -5.2,   -5.1,   -5.0,   -4.7,   -4.5,   -4.3,   -4.1,   -4.0,   -4.0,   -4.1,   -4.2,   -4.4,   -4.6,   -5.2,   -4.9,   -4.8,   -3.6,   -2.5,   -1.9,   -2.1,   -2.0,   -1.9,   -1.7,   -1.5,   -1.4,   -1.3,   -1.1,   -1.0,   -0.9,   -1.0,   -1.0,   -1.1
1999/01/01 21:00,  999.0,  999.0,  999.0,  999.0,   -5.9,   -6.1,   -6.2,   -6.2,   -6.1,   -6.2,   -6.2,   -6.3,   -6.3,   -6.3,   -6.3,   -6.2,   -6.1,   -6.1,   -6.1,   -6.1,   -6.0,   -6.1,   -5.6,   -5.3,   -5.0,   -4.9,   -5.0,   -4.9,   -4.8,   -4.7,   -4.6,   -4.5,   -4.2,   -4.1,   -4.0,   -3.9,   -3.5,   -3.0,   -2.4,   -2.4,   -2.1,   -1.6,   -1.4,   -1.3,   -1.2,   -1.0,   -0.9,   -0.8,   -0.8,   -0.9,   -1.1,   -1.1
1999/01/01 21:10,  999.0,  999.0,  999.0,  999.0,   -6.0,   -6.1,   -6.3,   -6.3,   -6.5,   -6.4,   -6.4,   -6.4,   -6.4,   -6.4,   -6.4,   -6.4,   -6.3,   -6.3,   -6.2,   -6.2,   -5.9,   -5.8,   -5.6,   -5.1,   -5.1,   -5.1,   -5.7,   -5.7,   -5.7,   -5.5,   -5.3,   -5.2,   -5.3,   -5.3,   -5.2,   -4.8,   -4.2,   -3.6,   -3.0,   -2.6,   -2.1,   -1.7,   -1.4,   -1.2,   -1.0,   -1.0,   -1.0,   -1.1,   -1.2,   -1.2,   -1.2,   -1.1
1999/01/01 21:20,  999.0,  999.0,  999.0,  999.0,   -4.6,   -4.6,   -4.8,   -4.8,   -4.8,   -4.9,   -5.1,   -5.2,   -5.3,   -5.5,   -5.4,   -5.4,   -5.5,   -5.5,   -5.6,   -5.5,   -5.6,   -5.5,   -5.5,   -5.4,   -5.4,   -5.3,   -5.3,   -5.1,   -5.3,   -4.7,   -4.6,   -4.5,   -4.5,   -4.5,   -4.3,   -4.2,   -3.9,   -3.2,   -2.8,   -2.4,   -2.1,   -1.8,   -1.5,   -1.3,   -1.2,   -1.2,   -1.1,   -1.0,   -1.1,   -1.1,   -1.1,   -1.1
1999/01/01 21:30,  999.0,  999.0,  999.0,  999.0,   -4.8,   -4.8,   -4.7,   -4.7,   -4.8,   -4.8,   -5.0,   -5.1,   -5.1,   -5.1,   -5.1,   -5.2,   -5.3,   -5.2,   -5.3,   -5.3,   -5.3,   -5.2,   -5.1,   -5.0,   -5.0,   -5.0,   -4.9,   -4.9,   -4.8,   -4.7,   -4.6,   -4.4,   -4.3,   -4.2,   -4.2,   -4.0,   -3.7,   -3.0,   -2.4,   -2.0,   -1.6,   -1.4,   -1.2,   -1.0,   -1.0,   -1.0,   -1.0,   -1.0,   -1.0,   -1.1,   -1.1,   -1.1
1999/01/01 21:40,  999.0,  999.0,  999.0,  999.0,   -5.1,   -4.9,   -4.9,   -4.9,   -5.2,   -5.2,   -5.2,   -5.5,   -5.6,   -5.6,   -5.7,   -5.8,   -5.9,   -5.9,   -6.0,   -6.1,   -5.8,   -5.7,   -5.7,   -5.6,   -5.5,   -5.6,   -5.4,   -5.2,   -5.0,   -4.9,   -4.8,   -4.7,   -4.6,   -4.4,   -4.3,   -4.2,   -3.7,   -3.2,   -2.7,   -2.3,   -1.9,   -1.6,   -1.3,   -1.1,   -1.0,   -1.0,   -1.0,   -1.0,   -0.9,   -0.9,   -1.0,   -1.0
1999/01/01 21:50,  999.0,  999.0,  999.0,  999.0,   -5.6,   -5.7,   -5.7,   -5.7,   -5.7,   -5.7,   -5.6,   -5.6,   -5.7,   -5.7,   -5.7,   -5.6,   -5.5,   -5.4,   -5.3,   -5.3,   -5.4,   -5.5,   -5.5,   -5.5,   -5.5,   -5.4,   -5.3,   -5.2,   -5.2,   -5.0,   -4.9,   -4.7,   -4.5,   -4.2,   -4.0,   -3.8,   -3.6,   -2.9,   -2.2,   -1.8,   -1.5,   -1.3,   -1.2,   -1.1,   -1.0,   -0.9,   -1.0,   -1.0,   -1.1,   -1.0,   -1.0,   -0.9
1999/01/01 22:00,  999.0,  999.0,  999.0,  999.0,   -4.8,   -4.8,   -5.1,   -5.0,   -4.9,   -5.0,   -4.8,   -5.0,   -5.1,   -5.1,   -5.2,   -5.2,   -5.2,   -5.2,   -5.1,   -5.1,   -5.1,   -5.2,   -5.2,   -5.2,   -5.2,   -5.2,   -5.2,   -5.2,   -5.2,   -5.1,   -5.1,   -5.0,   -4.8,   -4.5,   -4.3,   -4.1,   -3.7,   -3.1,   -2.5,   -1.9,   -1.5,   -1.3,   -1.0,   -0.9,   -0.9,   -1.0,   -1.0,   -1.0,   -1.0,   -0.9,   -1.0,   -0.9
1999/01/01 22:10,  999.0,  999.0,  999.0,  999.0,   -4.7,   -4.8,   -4.5,   -4.5,   -4.3,   -4.3,   -4.4,   -4.5,   -4.5,   -4.5,   -4.4,   -4.3,   -4.2,   -4.3,   -4.3,   -4.5,   -4.5,   -4.5,   -4.4,   -4.3,   -4.4,   -4.4,   -4.4,   -4.3,   -4.2,   -4.1,   -3.9,   -3.7,   -3.4,   -3.2,   -2.9,   -2.6,   -2.4,   -2.0,   -1.5,   -1.2,   -0.9,   -0.9,   -0.9,   -0.9,   -1.0,   -1.1,   -1.2,   -1.1,   -1.0,   -1.1,   -1.0,   -1.1
1999/01/01 22:20,  999.0,  999.0,  999.0,  999.0,   -4.2,   -3.7,  999.0,   -3.5,   -3.9,   -4.0,   -3.8,   -3.7,   -3.8,   -3.7,   -3.7,   -3.6,   -3.4,   -3.3,   -3.2,   -3.1,   -3.1,   -3.0,   -2.9,   -2.8,   -2.9,   -2.8,   -2.7,   -2.8,   -2.6,   -2.5,   -2.5,   -2.6,   -2.6,   -2.4,   -2.1,   -2.1,   -2.6,   -2.0,   -1.6,   -1.3,   -1.2,   -1.2,   -1.2,   -1.2,   -1.2,   -1.2,   -1.2,   -1.2,   -1.1,   -1.1,   -1.1,   -1.1
1999/01/01 22:30,  999.0,  999.0,  999.0,  999.0,  999.0,   -2.8,   -3.0,   -3.0,   -3.3,   -3.4,   -3.4,   -3.3,   -3.3,   -3.2,   -3.2,   -3.2,   -3.2,   -3.1,   -3.0,   -2.9,   -3.1,   -3.2,   -3.2,   -3.1,   -3.0,   -3.0,   -3.1,   -3.1,   -3.1,   -3.1,   -3.0,   -2.9,   -2.9,   -2.8,   -2.6,   -2.8,   -2.5,   -1.8,   -1.4,   -1.2,   -1.1,   -1.1,   -1.1,   -1.1,   -1.2,   -1.2,   -1.1,   -1.1,   -1.1,   -1.1,   -1.1,   -1.1
1999/01/01 22:40,  999.0,  999.0,  999.0,  999.0,  999.0,   -2.7,   -2.7,   -2.7,   -2.6,   -2.7,   -2.7,   -2.8,   -2.6,   -2.7,   -2.8,   -2.8,   -2.8,   -2.8,   -2.5,   -2.4,   -2.7,   -2.7,   -2.7,   -2.7,   -2.6,   -2.5,   -2.3,   -2.2,   -2.2,   -2.1,   -2.2,   -2.1,   -2.1,   -2.0,   -2.1,   -2.1,   -2.1,   -1.7,   -1.3,   -1.2,   -1.2,   -1.1,   -1.2,   -1.2,   -1.3,   -1.2,   -1.2,   -1.2,   -1.2,   -1.2,   -1.2,   -1.1
1999/01/01 22:50,  999.0,  999.0,  999.0,  999.0,  999.0,   -2.4,   -2.0,   -2.3,   -2.1,   -2.1,   -2.2,   -2.1,   -2.0,   -2.0,   -2.2,   -2.2,   -2.0,   -1.9,   -2.2,   -2.1,   -2.2,   -2.1,   -2.1,   -2.1,   -2.1,   -2.1,   -2.1,   -2.1,   -2.2,   -2.1,   -2.1,   -2.1,   -2.0,   -2.1,   -1.9,   -2.0,   -2.2,   -1.7,   -1.3,   -1.1,   -1.1,   -1.2,   -1.2,   -1.2,   -1.2,   -1.2,   -1.3,   -1.2,   -1.2,   -1.2,   -1.2,   -1.2
1999/01/01 23:00,  999.0,  999.0,  999.0,  999.0,  999.0,  999.0,  999.0,   -2.0,   -2.7,   -2.3,   -2.7,   -2.7,   -2.9,   -3.1,   -2.8,  999.0,   -2.7,   -2.6,   -2.8,   -2.5,  999.0,  999.0,  999.0,   -1.6,   -2.1,   -1.8,   -1.8,   -1.8,   -1.7,   -1.6,   -1.4,   -1.3,   -1.0,   -1.0,   -1.7,   -2.5,   -2.4,   -1.8,   -1.4,   -1.2,   -1.3,   -1.2,   -1.2,   -1.2,   -1.2,   -1.2,   -1.2,   -1.2,   -1.2,   -1.2,   -1.2,   -1.2
1999/01/01 23:10,  999.0,  999.0,  999.0,  999.0,  999.0,  999.0,  999.0,   -2.3,   -2.4,   -2.5,   -2.4,   -2.7,   -2.5,  999.0,   -2.5,   -2.7,  999.0,  999.0,   -2.6,   -2.6,   -2.6,   -2.7,   -2.7,   -2.6,   -2.5,   -2.6,   -2.6,   -2.6,   -2.6,   -2.7,   -2.8,   -2.8,   -2.7,   -2.8,   -2.8,   -2.7,   -2.7,   -1.9,   -1.4,   -1.2,   -1.3,   -1.3,   -1.3,   -1.3,   -1.3,   -1.2,   -1.2,   -1.2,   -1.2,   -1.2,   -1.2,   -1.2
1999/01/01 23:20,  999.0,  999.0,  999.0,  999.0,  999.0,  999.0,  999.0,   -2.4,   -2.5,   -3.0,   -2.7,  999.0,   -2.7,  999.0,   -2.7,   -3.0,   -3.0,   -2.7,   -2.8,   -2.9,   -2.8,   -2.8,   -2.9,   -3.0,   -2.9,   -2.9,   -2.9,   -3.0,   -3.0,   -3.0,   -3.0,   -3.1,   -3.0,   -3.0,   -3.1,   -3.1,   -3.1,   -2.2,   -1.6,   -1.3,   -1.3,   -1.3,   -1.2,   -1.2,   -1.2,   -1.2,   -1.2,   -1.1,   -1.1,   -1.1,   -1.1,   -1.2
1999/01/01 23:30,  999.0,  999.0,  999.0,  999.0,  999.0,  999.0,   -0.4,   -0.9,   -2.7,   -2.8,   -2.8,   -2.8,  999.0,   -3.0,   -3.0,   -2.5,   -2.6,   -2.9,   -2.9,   -3.1,   -3.2,   -3.2,   -3.3,   -3.2,   -3.2,   -3.2,   -3.2,   -3.2,   -3.2,   -3.2,   -3.1,   -3.1,   -3.2,   -3.2,   -3.1,   -3.2,   -3.1,   -2.2,   -1.6,   -1.3,   -1.2,   -1.2,   -1.1,   -1.1,   -1.1,   -1.1,   -1.1,   -1.1,   -1.1,   -1.1,   -1.1,   -1.1
1999/01/01 23:40,  999.0,  999.0,  999.0,  999.0,  999.0,  999.0,    0.0,   -0.0,   -0.4,   -0.3,   -0.2,   -0.2,   -0.1,  999.0,  999.0,  999.0,  999.0,   -3.1,   -3.2,   -3.1,   -3.3,   -3.2,   -3.3,  999.0,  999.0,   -3.3,   -3.1,   -3.0,   -3.0,   -2.9,   -3.0,   -2.9,   -2.9,   -2.8,   -2.8,   -2.7,   -2.7,   -2.2,   -1.6,   -1.2,   -1.2,   -1.1,   -1.1,   -1.1,   -1.1,   -1.1,   -1.1,   -1.1,   -1.1,   -1.1,   -1.2,   -1.1
1999/01/01 23:50,  999.0,  999.0,  999.0,  999.0,  999.0,  999.0,   -0.1,   -0.1,   -0.1,   -0.0,   -0.1,    0.1,   -0.1,   -0.1,  999.0,  999.0,  999.0,  999.0,  999.0,   -2.9,   -2.8,   -2.9,  999.0,  999.0,  999.0,   -2.7,   -2.7,   -2.7,   -2.6,   -2.6,   -2.5,   -2.4,   -2.4,   -2.5,   -2.4,   -2.4,   -2.4,   -2.0,   -1.5,   -1.2,   -1.1,   -1.0,   -1.0,   -0.9,   -1.1,   -1.1,   -1.1,   -1.2,   -1.2,   -1.2,   -1.2,   -1.1
